GEFSSE_prec_meanprecacc_120.txt.gz
Total_Precipitation_Accumulation
0.09 0.10 0.20 0.20 0.11 0.07 0.09 0.13 0.17 0.17 0.14 0.14 0.13 0.12 0.10 0.07 0.05 0.04 0.04 0.05 0.06 0.08 0.09 0.11 0.13 0.16 0.19 0.24 0.32 0.35 0.33 0.36 0.51 0.59 0.66 0.81 1.00 1.15 1.36 1.56 1.63 1.35 1.12
0.02 0.05 0.18 0.22 0.16 0.11 0.10 0.13 0.16 0.17 0.16 0.15 0.15 0.14 0.12 0.08 0.06 0.06 0.06 0.06 0.07 0.09 0.10 0.11 0.14 0.16 0.20 0.19 0.23 0.26 0.30 0.43 0.59 0.76 0.96 1.07 1.18 1.32 1.42 1.49 1.55 1.16 0.98
0.01 0.02 0.10 0.18 0.16 0.13 0.11 0.12 0.14 0.16 0.15 0.15 0.14 0.13 0.10 0.08 0.06 0.06 0.06 0.06 0.07 0.09 0.08 0.10 0.13 0.14 0.17 0.21 0.21 0.27 0.33 0.50 0.76 1.03 1.22 1.20 0.98 1.20 1.29 1.42 1.42 0.94 0.87
0.01 0.01 0.03 0.13 0.14 0.12 0.12 0.13 0.13 0.13 0.12 0.12 0.11 0.10 0.08 0.07 0.07 0.07 0.07 0.08 0.09 0.09 0.09 0.11 0.14 0.14 0.14 0.18 0.24 0.31 0.36 0.54 0.78 1.12 1.21 1.06 0.83 0.92 1.10 1.05 1.05 0.87 0.82
0.03 0.02 0.05 0.11 0.12 0.12 0.11 0.11 0.11 0.10 0.10 0.10 0.10 0.09 0.08 0.07 0.07 0.08 0.08 0.10 0.11 0.11 0.12 0.14 0.17 0.16 0.14 0.15 0.23 0.34 0.44 0.60 0.74 0.96 0.84 0.97 1.08 0.96 0.92 0.87 0.90 0.77 0.69
0.05 0.04 0.07 0.11 0.12 0.12 0.12 0.12 0.11 0.10 0.09 0.09 0.09 0.09 0.07 0.07 0.08 0.09 0.10 0.11 0.12 0.14 0.14 0.16 0.16 0.16 0.16 0.17 0.25 0.35 0.51 0.68 0.74 0.63 0.60 0.76 0.81 0.92 0.86 0.82 0.76 0.67 0.55
0.04 0.05 0.07 0.13 0.15 0.14 0.13 0.14 0.13 0.12 0.10 0.10 0.10 0.09 0.08 0.09 0.10 0.10 0.12 0.13 0.13 0.16 0.17 0.16 0.16 0.19 0.21 0.23 0.28 0.35 0.49 0.68 0.64 0.54 0.57 0.72 0.72 0.77 0.86 0.85 0.80 0.64 0.51
0.06 0.05 0.09 0.15 0.17 0.17 0.17 0.17 0.16 0.14 0.13 0.12 0.12 0.11 0.11 0.11 0.11 0.12 0.14 0.15 0.15 0.17 0.16 0.17 0.17 0.19 0.24 0.27 0.31 0.34 0.45 0.56 0.52 0.47 0.50 0.59 0.64 0.70 0.88 0.81 0.71 0.61 0.51
0.24 0.12 0.12 0.13 0.17 0.20 0.22 0.21 0.18 0.16 0.16 0.15 0.14 0.12 0.11 0.11 0.11 0.13 0.16 0.19 0.19 0.20 0.18 0.18 0.19 0.22 0.26 0.29 0.32 0.35 0.44 0.52 0.53 0.61 0.56 0.50 0.56 0.68 0.94 0.86 0.73 0.66 0.58
0.44 0.29 0.22 0.22 0.28 0.27 0.25 0.23 0.23 0.21 0.18 0.16 0.14 0.12 0.12 0.12 0.16 0.21 0.22 0.23 0.25 0.27 0.27 0.27 0.29 0.33 0.36 0.37 0.42 0.48 0.55 0.53 0.58 0.72 0.59 0.41 0.54 0.75 1.01 1.02 0.90 0.89 0.77
0.69 0.62 0.54 0.44 0.40 0.42 0.39 0.32 0.34 0.34 0.33 0.28 0.28 0.28 0.29 0.35 0.42 0.54 0.50 0.54 0.50 0.49 0.51 0.52 0.54 0.58 0.59 0.50 0.58 0.68 0.61 0.62 0.83 0.83 0.62 0.47 0.61 0.90 1.06 1.12 1.05 1.00 0.96
1.02 0.92 0.91 0.78 0.58 0.50 0.47 0.60 0.73 0.71 0.74 0.70 0.75 0.74 0.76 0.79 0.76 0.69 0.83 0.92 0.95 1.03 1.02 1.04 1.20 1.06 0.83 0.66 0.85 0.97 0.75 0.73 0.82 0.69 0.53 0.56 0.73 1.00 1.17 1.15 1.11 1.05 1.04
1.46 1.25 1.00 0.97 0.90 0.85 0.87 0.89 0.95 1.07 1.16 1.25 1.30 1.29 1.36 1.18 1.01 0.97 1.22 1.38 1.35 1.34 1.24 1.51 1.71 1.31 1.25 1.36 1.37 1.24 1.08 0.96 0.91 0.77 0.71 0.80 0.93 1.17 1.32 1.21 1.17 1.13 1.00
2.03 1.88 1.70 1.46 1.36 1.32 1.19 1.05 1.01 1.00 1.10 1.19 1.30 1.38 1.53 1.56 1.45 1.48 1.63 1.52 1.49 1.51 1.69 1.73 1.86 1.69 1.61 1.59 1.56 1.62 1.57 1.26 1.15 1.08 1.15 1.22 1.27 1.39 1.48 1.39 1.33 1.27 1.16
2.47 2.43 2.71 2.41 2.03 1.76 1.50 1.26 1.07 1.00 0.90 0.90 1.02 1.25 1.43 1.55 1.64 1.74 1.59 1.45 1.28 1.54 1.81 1.84 1.68 1.83 1.86 1.94 1.91 1.89 1.92 1.64 1.43 1.32 1.39 1.62 1.58 1.54 1.61 1.66 1.61 1.52 1.47
3.25 3.16 3.17 3.26 2.66 2.10 1.74 1.45 1.21 0.98 0.97 0.97 1.01 1.10 1.28 1.42 1.50 1.55 1.50 1.40 1.33 1.49 1.69 1.72 1.71 1.93 2.03 2.03 1.75 1.67 1.66 1.68 1.54 1.32 1.44 1.62 1.66 1.51 1.58 1.77 1.83 1.79 1.79
3.76 3.88 3.82 3.78 3.26 2.77 2.44 1.95 1.46 1.22 1.08 1.10 1.10 1.01 1.05 1.15 1.19 1.31 1.33 1.28 1.32 1.39 1.42 1.41 1.47 1.65 1.64 1.58 1.44 1.40 1.45 1.48 1.50 1.46 1.31 1.36 1.51 1.58 1.53 1.66 1.77 1.80 1.92
4.36 4.64 4.62 4.29 3.93 3.29 2.80 2.40 1.96 1.68 1.44 1.24 1.11 0.95 0.81 0.86 0.92 1.01 0.99 1.01 1.06 1.11 1.11 1.12 1.18 1.28 1.36 1.48 1.48 1.36 1.48 1.53 1.48 1.55 1.51 1.38 1.51 1.46 1.68 1.81 1.79 1.73 1.92
5.56 6.02 5.78 5.02 4.42 3.64 2.95 2.63 2.40 2.20 1.87 1.53 1.35 1.12 0.92 0.82 0.84 0.89 0.87 0.89 0.82 0.84 0.87 0.82 0.93 1.06 1.17 1.23 1.18 1.23 1.21 1.25 1.25 1.23 1.36 1.24 1.32 1.41 1.58 1.67 1.77 1.71 1.95
5.98 6.66 6.53 5.76 4.71 3.80 3.22 2.87 2.66 2.35 1.98 1.61 1.43 1.22 0.98 0.84 0.79 0.76 0.71 0.67 0.59 0.62 0.69 0.74 0.86 0.92 0.93 0.99 0.91 0.97 0.94 0.89 0.95 1.01 0.96 1.02 1.08 1.04 1.25 1.43 1.58 1.36 1.69
4.97 5.42 5.32 4.66 3.99 3.24 2.64 2.11 1.88 1.66 1.44 1.27 1.17 1.01 0.92 0.80 0.72 0.66 0.55 0.55 0.48 0.47 0.52 0.53 0.60 0.67 0.69 0.75 0.88 0.89 0.78 0.73 0.76 0.76 0.72 0.78 0.80 0.92 1.17 1.33 1.37 1.32 1.20
3.51 3.62 3.14 2.87 2.63 2.17 1.86 1.61 1.39 1.30 1.11 0.93 0.86 0.79 0.64 0.59 0.60 0.54 0.53 0.49 0.47 0.48 0.44 0.45 0.51 0.55 0.57 0.61 0.71 0.74 0.69 0.69 0.69 0.56 0.64 0.66 0.70 0.87 1.00 1.00 1.08 1.19 1.02
2.43 2.32 1.97 1.78 1.87 1.74 1.63 1.51 1.35 1.31 1.19 0.94 0.75 0.66 0.54 0.45 0.45 0.48 0.50 0.51 0.49 0.43 0.40 0.43 0.42 0.44 0.45 0.47 0.54 0.62 0.63 0.62 0.56 0.51 0.53 0.55 0.63 0.75 0.79 0.88 0.82 0.83 0.91
1.59 1.61 1.74 1.68 1.63 1.49 1.43 1.20 1.00 0.88 0.76 0.64 0.59 0.55 0.52 0.44 0.39 0.39 0.42 0.47 0.44 0.40 0.42 0.33 0.32 0.38 0.40 0.36 0.38 0.45 0.44 0.49 0.56 0.56 0.51 0.52 0.59 0.59 0.59 0.64 0.65 0.69 0.73
1.16 1.38 1.71 1.70 1.51 1.36 1.27 1.17 1.13 0.99 0.88 0.73 0.66 0.65 0.60 0.55 0.46 0.37 0.33 0.37 0.41 0.44 0.49 0.41 0.38 0.36 0.34 0.31 0.31 0.38 0.39 0.34 0.39 0.50 0.53 0.50 0.50 0.42 0.41 0.43 0.44 0.51 0.56
1.01 1.11 1.30 1.39 1.46 1.41 1.36 1.23 1.19 1.08 0.98 0.85 0.71 0.63 0.60 0.55 0.52 0.48 0.44 0.47 0.49 0.45 0.45 0.44 0.46 0.43 0.41 0.37 0.30 0.32 0.46 0.43 0.33 0.39 0.41 0.46 0.45 0.32 0.33 0.37 0.38 0.43 0.51

GEFSSE_prec_meanprecacc_126.txt.gz
Total_Precipitation_Accumulation
0.09 0.10 0.21 0.20 0.11 0.08 0.10 0.14 0.18 0.19 0.16 0.15 0.14 0.12 0.11 0.07 0.05 0.05 0.05 0.06 0.08 0.11 0.13 0.14 0.16 0.20 0.24 0.31 0.37 0.38 0.36 0.38 0.55 0.63 0.71 0.86 1.04 1.20 1.46 1.68 1.75 1.43 1.19
0.02 0.05 0.18 0.22 0.16 0.11 0.11 0.14 0.18 0.19 0.18 0.17 0.15 0.15 0.13 0.09 0.07 0.06 0.07 0.08 0.09 0.12 0.13 0.13 0.16 0.19 0.24 0.25 0.28 0.29 0.32 0.46 0.65 0.82 1.04 1.16 1.22 1.38 1.54 1.66 1.71 1.24 1.05
0.01 0.02 0.10 0.18 0.16 0.13 0.12 0.13 0.15 0.17 0.17 0.16 0.15 0.14 0.11 0.08 0.07 0.07 0.08 0.09 0.10 0.11 0.11 0.12 0.16 0.19 0.22 0.26 0.26 0.30 0.36 0.53 0.82 1.14 1.38 1.31 1.01 1.26 1.38 1.55 1.52 1.00 0.92
0.01 0.01 0.03 0.13 0.15 0.13 0.13 0.14 0.14 0.14 0.13 0.13 0.12 0.12 0.09 0.08 0.09 0.09 0.10 0.10 0.12 0.12 0.12 0.15 0.20 0.19 0.18 0.22 0.28 0.34 0.41 0.59 0.84 1.28 1.37 1.15 0.88 0.97 1.17 1.13 1.10 0.92 0.87
0.03 0.02 0.05 0.11 0.12 0.12 0.12 0.12 0.12 0.11 0.11 0.11 0.10 0.10 0.08 0.08 0.09 0.10 0.10 0.12 0.14 0.15 0.17 0.19 0.22 0.19 0.17 0.17 0.25 0.36 0.47 0.65 0.84 1.15 0.99 1.07 1.15 1.02 0.98 0.92 0.93 0.81 0.73
0.05 0.04 0.07 0.11 0.12 0.12 0.12 0.12 0.11 0.10 0.10 0.10 0.10 0.10 0.08 0.08 0.09 0.10 0.11 0.13 0.17 0.19 0.18 0.21 0.19 0.19 0.18 0.19 0.27 0.38 0.55 0.76 0.89 0.76 0.69 0.86 0.87 0.98 0.91 0.87 0.80 0.71 0.60
0.04 0.05 0.07 0.13 0.15 0.15 0.14 0.14 0.14 0.12 0.11 0.11 0.11 0.10 0.10 0.10 0.11 0.12 0.13 0.15 0.16 0.21 0.19 0.18 0.18 0.21 0.24 0.25 0.30 0.37 0.52 0.74 0.74 0.60 0.64 0.81 0.77 0.81 0.89 0.89 0.85 0.70 0.56
0.07 0.05 0.09 0.15 0.17 0.18 0.17 0.17 0.16 0.15 0.14 0.13 0.13 0.12 0.13 0.13 0.12 0.13 0.16 0.17 0.18 0.20 0.20 0.20 0.19 0.21 0.26 0.29 0.33 0.36 0.46 0.60 0.56 0.50 0.55 0.64 0.67 0.73 0.91 0.84 0.75 0.67 0.56
0.26 0.14 0.13 0.13 0.17 0.20 0.22 0.21 0.19 0.17 0.16 0.15 0.15 0.13 0.13 0.12 0.12 0.14 0.19 0.21 0.20 0.22 0.20 0.20 0.21 0.23 0.27 0.29 0.33 0.36 0.45 0.56 0.57 0.64 0.59 0.52 0.57 0.71 0.96 0.88 0.76 0.69 0.62
0.48 0.30 0.24 0.24 0.29 0.28 0.25 0.23 0.24 0.22 0.19 0.17 0.15 0.13 0.13 0.13 0.17 0.23 0.25 0.26 0.26 0.29 0.28 0.28 0.30 0.34 0.37 0.37 0.43 0.48 0.56 0.56 0.62 0.76 0.61 0.42 0.55 0.77 1.04 1.04 0.93 0.92 0.80
0.76 0.66 0.57 0.48 0.44 0.45 0.41 0.33 0.35 0.35 0.33 0.29 0.29 0.28 0.31 0.42 0.46 0.58 0.53 0.56 0.51 0.50 0.52 0.52 0.55 0.58 0.60 0.51 0.59 0.68 0.63 0.66 0.87 0.87 0.64 0.48 0.62 0.92 1.09 1.15 1.08 1.03 1.00
1.08 0.98 0.97 0.83 0.63 0.55 0.51 0.62 0.75 0.73 0.76 0.73 0.79 0.76 0.85 0.91 0.90 0.77 0.85 0.93 0.96 1.04 1.03 1.05 1.22 1.10 0.87 0.70 0.86 1.00 0.80 0.79 0.87 0.72 0.55 0.57 0.73 1.01 1.19 1.17 1.13 1.08 1.07
1.52 1.30 1.10 1.08 0.98 0.93 0.96 0.96 0.99 1.11 1.20 1.32 1.38 1.35 1.45 1.26 1.10 1.03 1.26 1.41 1.38 1.36 1.29 1.53 1.74 1.39 1.33 1.42 1.42 1.31 1.15 1.00 0.94 0.82 0.74 0.81 0.94 1.19 1.33 1.22 1.20 1.16 1.04
2.09 1.97 1.84 1.62 1.49 1.44 1.33 1.16 1.08 1.05 1.14 1.26 1.38 1.44 1.59 1.65 1.54 1.58 1.71 1.59 1.56 1.59 1.77 1.78 1.94 1.78 1.67 1.61 1.58 1.67 1.61 1.29 1.19 1.15 1.20 1.24 1.28 1.41 1.49 1.41 1.35 1.29 1.19
2.53 2.55 2.86 2.61 2.20 1.89 1.63 1.38 1.15 1.06 0.95 0.95 1.08 1.30 1.47 1.60 1.70 1.82 1.66 1.53 1.35 1.60 1.85 1.89 1.73 1.88 1.91 1.96 1.92 1.90 1.93 1.67 1.48 1.38 1.45 1.64 1.59 1.55 1.63 1.67 1.63 1.55 1.50
3.32 3.27 3.31 3.45 2.91 2.28 1.85 1.54 1.28 1.03 1.03 1.05 1.06 1.13 1.31 1.46 1.55 1.61 1.55 1.46 1.39 1.55 1.74 1.76 1.74 1.97 2.06 2.05 1.78 1.68 1.68 1.72 1.62 1.41 1.52 1.66 1.67 1.53 1.59 1.78 1.84 1.81 1.82
3.87 4.00 3.96 3.97 3.59 3.02 2.56 2.03 1.52 1.27 1.11 1.14 1.15 1.06 1.07 1.19 1.24 1.36 1.39 1.34 1.37 1.43 1.46 1.44 1.50 1.69 1.67 1.60 1.46 1.42 1.48 1.52 1.58 1.54 1.37 1.43 1.57 1.62 1.55 1.67 1.78 1.82 1.95
4.45 4.71 4.71 4.41 4.19 3.54 2.95 2.49 2.02 1.73 1.49 1.27 1.15 1.00 0.84 0.89 0.96 1.06 1.04 1.05 1.10 1.13 1.13 1.16 1.21 1.32 1.40 1.50 1.50 1.39 1.52 1.58 1.51 1.58 1.54 1.43 1.61 1.52 1.70 1.83 1.80 1.74 1.93
5.60 6.06 5.84 5.10 4.53 3.80 3.09 2.73 2.49 2.28 1.94 1.59 1.40 1.17 0.96 0.85 0.86 0.92 0.93 0.95 0.84 0.86 0.89 0.84 0.98 1.11 1.21 1.27 1.21 1.26 1.23 1.29 1.29 1.25 1.39 1.27 1.36 1.47 1.62 1.69 1.78 1.72 1.96
6.02 6.71 6.59 5.85 4.80 3.93 3.36 2.99 2.76 2.45 2.05 1.67 1.46 1.26 1.02 0.87 0.82 0.80 0.75 0.70 0.62 0.67 0.75 0.79 0.93 0.97 0.98 1.03 0.94 1.01 0.97 0.91 0.98 1.03 0.99 1.04 1.10 1.06 1.29 1.49 1.62 1.38 1.70
5.01 5.48 5.39 4.72 4.07 3.34 2.74 2.19 1.95 1.76 1.53 1.32 1.20 1.04 0.95 0.83 0.76 0.71 0.61 0.63 0.53 0.54 0.58 0.57 0.65 0.72 0.74 0.79 0.93 0.97 0.83 0.75 0.78 0.79 0.74 0.80 0.84 0.95 1.22 1.40 1.45 1.40 1.25
3.55 3.67 3.19 2.93 2.71 2.23 1.94 1.71 1.48 1.41 1.20 0.99 0.92 0.86 0.67 0.62 0.63 0.57 0.62 0.56 0.53 0.56 0.51 0.51 0.57 0.63 0.65 0.66 0.76 0.84 0.80 0.80 0.76 0.59 0.67 0.68 0.73 0.90 1.04 1.03 1.13 1.28 1.11
2.46 2.35 2.02 1.85 1.95 1.81 1.74 1.62 1.47 1.45 1.32 1.06 0.85 0.76 0.59 0.48 0.49 0.55 0.58 0.59 0.57 0.49 0.48 0.51 0.48 0.52 0.53 0.52 0.57 0.68 0.74 0.75 0.68 0.59 0.58 0.58 0.66 0.78 0.82 0.92 0.85 0.87 0.97
1.61 1.63 1.77 1.75 1.72 1.59 1.55 1.30 1.08 0.97 0.86 0.75 0.69 0.63 0.60 0.49 0.44 0.44 0.48 0.57 0.54 0.47 0.52 0.39 0.38 0.44 0.49 0.43 0.42 0.48 0.48 0.56 0.65 0.69 0.60 0.57 0.61 0.61 0.62 0.67 0.69 0.73 0.77
1.19 1.41 1.74 1.75 1.60 1.44 1.36 1.29 1.25 1.12 1.03 0.86 0.76 0.76 0.69 0.62 0.52 0.41 0.39 0.46 0.50 0.51 0.58 0.48 0.47 0.42 0.41 0.37 0.36 0.42 0.41 0.38 0.43 0.57 0.65 0.61 0.57 0.46 0.45 0.46 0.48 0.55 0.60
1.05 1.15 1.33 1.45 1.55 1.52 1.51 1.45 1.33 1.23 1.15 1.01 0.86 0.76 0.68 0.62 0.58 0.53 0.50 0.55 0.56 0.52 0.54 0.51 0.52 0.49 0.47 0.44 0.35 0.36 0.50 0.46 0.36 0.43 0.47 0.54 0.52 0.36 0.35 0.39 0.41 0.47 0.54

GEFSSE_prec_meanprecacc_132.txt.gz
Total_Precipitation_Accumulation
0.10 0.10 0.21 0.20 0.12 0.08 0.10 0.15 0.19 0.19 0.16 0.15 0.15 0.13 0.11 0.07 0.05 0.05 0.06 0.08 0.09 0.12 0.15 0.16 0.18 0.23 0.27 0.35 0.41 0.41 0.38 0.41 0.59 0.67 0.75 0.90 1.09 1.27 1.53 1.74 1.79 1.46 1.23
0.02 0.05 0.18 0.22 0.16 0.12 0.11 0.14 0.18 0.19 0.18 0.17 0.16 0.15 0.13 0.09 0.07 0.06 0.07 0.09 0.10 0.13 0.14 0.15 0.18 0.21 0.27 0.28 0.31 0.31 0.34 0.50 0.70 0.87 1.09 1.20 1.28 1.45 1.60 1.73 1.75 1.27 1.07
0.01 0.02 0.10 0.19 0.16 0.14 0.12 0.13 0.15 0.17 0.17 0.17 0.15 0.14 0.11 0.08 0.08 0.07 0.09 0.10 0.11 0.12 0.11 0.13 0.18 0.22 0.26 0.28 0.28 0.32 0.39 0.58 0.89 1.20 1.42 1.32 1.05 1.33 1.43 1.60 1.57 1.05 0.94
0.02 0.01 0.03 0.13 0.15 0.13 0.13 0.14 0.14 0.15 0.13 0.13 0.13 0.12 0.10 0.09 0.10 0.10 0.11 0.11 0.13 0.13 0.14 0.17 0.23 0.21 0.19 0.24 0.30 0.37 0.47 0.65 0.91 1.32 1.38 1.16 0.89 1.03 1.22 1.17 1.13 0.94 0.89
0.03 0.02 0.05 0.11 0.12 0.12 0.12 0.12 0.12 0.12 0.11 0.11 0.11 0.11 0.09 0.09 0.10 0.11 0.12 0.13 0.16 0.17 0.19 0.22 0.25 0.21 0.19 0.20 0.28 0.40 0.53 0.73 0.92 1.19 1.01 1.08 1.15 1.06 1.02 0.95 0.95 0.82 0.75
0.05 0.04 0.07 0.11 0.12 0.12 0.12 0.12 0.12 0.11 0.10 0.10 0.11 0.10 0.09 0.09 0.10 0.12 0.13 0.15 0.18 0.21 0.20 0.22 0.21 0.21 0.20 0.21 0.30 0.42 0.62 0.85 0.95 0.79 0.71 0.87 0.89 1.02 0.94 0.90 0.82 0.73 0.62
0.04 0.05 0.07 0.14 0.15 0.15 0.14 0.14 0.14 0.13 0.11 0.11 0.12 0.11 0.11 0.11 0.12 0.13 0.14 0.16 0.17 0.22 0.20 0.19 0.20 0.23 0.25 0.27 0.33 0.41 0.58 0.82 0.81 0.64 0.66 0.82 0.78 0.85 0.93 0.92 0.87 0.72 0.59
0.07 0.06 0.10 0.16 0.18 0.18 0.18 0.18 0.17 0.15 0.14 0.13 0.14 0.13 0.13 0.14 0.13 0.14 0.16 0.19 0.19 0.21 0.20 0.21 0.20 0.22 0.28 0.31 0.36 0.39 0.52 0.67 0.63 0.54 0.56 0.65 0.69 0.77 0.94 0.86 0.78 0.70 0.59
0.30 0.17 0.14 0.14 0.18 0.20 0.23 0.21 0.19 0.18 0.17 0.16 0.15 0.14 0.13 0.13 0.13 0.15 0.19 0.21 0.22 0.23 0.22 0.22 0.23 0.25 0.29 0.31 0.36 0.39 0.50 0.64 0.64 0.67 0.59 0.52 0.59 0.75 0.98 0.89 0.78 0.71 0.64
0.55 0.33 0.26 0.25 0.30 0.28 0.26 0.24 0.24 0.22 0.20 0.17 0.16 0.14 0.13 0.14 0.18 0.24 0.26 0.26 0.26 0.30 0.30 0.30 0.32 0.35 0.39 0.39 0.45 0.53 0.63 0.63 0.68 0.80 0.63 0.42 0.56 0.79 1.05 1.04 0.95 0.94 0.81
0.85 0.72 0.62 0.53 0.46 0.47 0.42 0.34 0.36 0.36 0.34 0.30 0.30 0.30 0.32 0.43 0.47 0.59 0.54 0.57 0.51 0.51 0.53 0.53 0.56 0.60 0.61 0.53 0.62 0.73 0.71 0.77 0.96 0.92 0.67 0.49 0.63 0.94 1.10 1.16 1.09 1.04 1.01
1.14 1.04 1.02 0.86 0.66 0.57 0.53 0.64 0.77 0.74 0.76 0.74 0.80 0.77 0.86 0.92 0.91 0.78 0.86 0.95 0.97 1.05 1.04 1.06 1.24 1.11 0.88 0.72 0.89 1.04 0.89 0.91 1.03 0.79 0.58 0.60 0.75 1.02 1.20 1.18 1.14 1.09 1.08
1.57 1.36 1.15 1.12 1.02 0.97 0.99 0.99 1.01 1.13 1.21 1.32 1.39 1.36 1.47 1.28 1.12 1.04 1.26 1.42 1.38 1.37 1.29 1.54 1.76 1.43 1.36 1.47 1.48 1.37 1.25 1.12 1.12 0.91 0.78 0.85 0.97 1.20 1.34 1.23 1.21 1.17 1.05
2.14 2.06 1.95 1.73 1.57 1.53 1.41 1.22 1.12 1.08 1.15 1.27 1.39 1.45 1.61 1.66 1.56 1.59 1.72 1.60 1.57 1.59 1.78 1.80 1.96 1.84 1.73 1.67 1.64 1.74 1.68 1.40 1.33 1.24 1.25 1.27 1.31 1.43 1.51 1.42 1.36 1.31 1.21
2.58 2.67 3.10 2.86 2.36 2.01 1.74 1.46 1.19 1.09 0.97 0.97 1.09 1.31 1.49 1.61 1.72 1.83 1.67 1.54 1.37 1.61 1.86 1.91 1.76 1.93 1.94 1.99 1.98 1.97 2.00 1.75 1.57 1.45 1.50 1.68 1.62 1.58 1.65 1.68 1.64 1.56 1.51
3.38 3.36 3.44 3.66 3.14 2.42 1.92 1.62 1.34 1.07 1.06 1.06 1.08 1.15 1.33 1.48 1.57 1.62 1.57 1.48 1.42 1.57 1.76 1.78 1.77 1.99 2.09 2.08 1.82 1.72 1.72 1.76 1.67 1.46 1.58 1.69 1.70 1.54 1.61 1.80 1.86 1.82 1.83
3.96 4.08 4.06 4.12 3.79 3.19 2.65 2.12 1.61 1.34 1.15 1.16 1.17 1.08 1.09 1.22 1.27 1.38 1.41 1.36 1.40 1.46 1.47 1.46 1.52 1.71 1.69 1.63 1.50 1.46 1.52 1.55 1.62 1.58 1.44 1.46 1.58 1.64 1.56 1.69 1.80 1.84 1.96
4.55 4.78 4.76 4.50 4.33 3.76 3.11 2.60 2.19 1.87 1.58 1.31 1.18 1.03 0.87 0.93 0.99 1.08 1.06 1.08 1.12 1.15 1.14 1.17 1.23 1.34 1.43 1.53 1.53 1.42 1.55 1.62 1.55 1.62 1.57 1.45 1.63 1.53 1.72 1.85 1.82 1.77 1.96
5.68 6.11 5.88 5.18 4.62 3.98 3.30 2.85 2.68 2.45 2.04 1.65 1.46 1.21 0.99 0.88 0.89 0.95 0.95 0.97 0.86 0.88 0.90 0.85 0.99 1.13 1.24 1.30 1.24 1.30 1.27 1.32 1.32 1.29 1.43 1.31 1.39 1.48 1.63 1.71 1.80 1.74 1.99
6.08 6.76 6.64 5.90 4.86 4.04 3.54 3.11 2.92 2.61 2.19 1.77 1.53 1.32 1.06 0.91 0.84 0.82 0.77 0.73 0.64 0.69 0.77 0.81 0.96 0.99 0.99 1.05 0.98 1.07 1.03 0.96 1.03 1.09 1.06 1.09 1.14 1.09 1.33 1.52 1.64 1.40 1.73
5.07 5.56 5.48 4.79 4.14 3.42 2.84 2.27 2.09 1.90 1.69 1.50 1.32 1.12 1.00 0.88 0.80 0.75 0.65 0.67 0.56 0.56 0.60 0.58 0.68 0.74 0.76 0.82 0.99 1.03 0.90 0.83 0.85 0.86 0.82 0.87 0.91 1.00 1.30 1.48 1.49 1.42 1.27
3.62 3.77 3.31 3.02 2.79 2.31 2.02 1.81 1.62 1.54 1.35 1.19 1.09 0.99 0.76 0.68 0.68 0.62 0.66 0.60 0.55 0.57 0.53 0.53 0.60 0.66 0.67 0.68 0.81 0.88 0.85 0.86 0.83 0.66 0.73 0.75 0.81 1.01 1.15 1.13 1.21 1.34 1.15
2.50 2.41 2.09 1.92 2.02 1.89 1.82 1.72 1.60 1.60 1.51 1.32 1.07 0.93 0.73 0.57 0.54 0.58 0.62 0.62 0.61 0.51 0.50 0.53 0.51 0.55 0.56 0.54 0.61 0.72 0.76 0.77 0.71 0.64 0.64 0.67 0.75 0.87 0.91 1.02 0.95 0.95 1.03
1.63 1.66 1.80 1.80 1.78 1.66 1.62 1.39 1.18 1.06 0.96 0.88 0.84 0.79 0.75 0.62 0.51 0.48 0.51 0.60 0.58 0.49 0.54 0.41 0.41 0.48 0.52 0.45 0.45 0.50 0.51 0.59 0.68 0.72 0.66 0.64 0.67 0.67 0.70 0.76 0.79 0.83 0.86
1.20 1.42 1.75 1.78 1.64 1.50 1.43 1.36 1.33 1.21 1.13 0.97 0.88 0.90 0.84 0.79 0.66 0.49 0.43 0.50 0.55 0.55 0.61 0.51 0.49 0.44 0.43 0.40 0.39 0.44 0.44 0.41 0.46 0.60 0.67 0.66 0.64 0.53 0.52 0.55 0.57 0.63 0.69
1.10 1.19 1.37 1.48 1.59 1.58 1.57 1.52 1.40 1.30 1.25 1.12 0.95 0.85 0.80 0.77 0.72 0.63 0.56 0.61 0.62 0.58 0.59 0.54 0.54 0.51 0.49 0.46 0.37 0.38 0.53 0.49 0.39 0.44 0.49 0.55 0.55 0.41 0.41 0.46 0.48 0.53 0.62

GEFSSE_prec_meanprecacc_138.txt.gz
Total_Precipitation_Accumulation
0.11 0.12 0.25 0.24 0.13 0.09 0.11 0.15 0.19 0.19 0.16 0.16 0.15 0.13 0.11 0.08 0.06 0.06 0.07 0.09 0.11 0.14 0.18 0.20 0.23 0.28 0.33 0.41 0.46 0.47 0.44 0.47 0.66 0.74 0.84 1.00 1.20 1.40 1.64 1.83 1.86 1.49 1.28
0.03 0.06 0.21 0.25 0.17 0.12 0.12 0.14 0.18 0.20 0.18 0.17 0.16 0.15 0.13 0.09 0.07 0.07 0.08 0.10 0.11 0.15 0.17 0.18 0.22 0.26 0.33 0.33 0.35 0.36 0.40 0.57 0.77 0.97 1.21 1.31 1.41 1.57 1.68 1.79 1.80 1.32 1.13
0.01 0.02 0.11 0.20 0.17 0.14 0.12 0.14 0.16 0.18 0.17 0.17 0.15 0.14 0.11 0.09 0.08 0.08 0.09 0.11 0.12 0.15 0.14 0.16 0.21 0.25 0.30 0.32 0.32 0.36 0.43 0.64 0.97 1.31 1.52 1.39 1.15 1.44 1.52 1.66 1.62 1.11 1.01
0.02 0.01 0.04 0.14 0.16 0.13 0.13 0.14 0.14 0.15 0.13 0.13 0.13 0.13 0.10 0.09 0.10 0.11 0.11 0.12 0.15 0.16 0.17 0.21 0.26 0.24 0.22 0.26 0.32 0.41 0.51 0.70 0.97 1.38 1.41 1.19 0.93 1.11 1.29 1.24 1.18 0.99 0.94
0.04 0.02 0.05 0.12 0.14 0.12 0.12 0.13 0.13 0.12 0.11 0.12 0.12 0.12 0.10 0.10 0.11 0.12 0.13 0.16 0.19 0.21 0.24 0.27 0.28 0.23 0.21 0.22 0.32 0.45 0.58 0.77 0.96 1.21 1.02 1.10 1.18 1.13 1.10 1.02 1.00 0.87 0.79
0.05 0.04 0.08 0.13 0.14 0.13 0.12 0.12 0.12 0.11 0.11 0.11 0.12 0.11 0.09 0.10 0.12 0.13 0.15 0.17 0.21 0.27 0.25 0.26 0.24 0.24 0.22 0.24 0.35 0.47 0.66 0.88 0.96 0.80 0.73 0.89 0.92 1.07 1.00 0.96 0.87 0.78 0.66
0.04 0.05 0.08 0.15 0.16 0.16 0.14 0.14 0.14 0.13 0.12 0.12 0.13 0.12 0.12 0.13 0.15 0.16 0.17 0.19 0.21 0.26 0.24 0.22 0.22 0.25 0.27 0.30 0.38 0.46 0.62 0.85 0.82 0.65 0.67 0.83 0.81 0.91 0.99 0.97 0.93 0.78 0.64
0.07 0.06 0.10 0.17 0.19 0.19 0.19 0.18 0.17 0.16 0.15 0.14 0.14 0.14 0.15 0.16 0.16 0.17 0.19 0.21 0.22 0.24 0.23 0.23 0.23 0.23 0.29 0.34 0.41 0.45 0.57 0.71 0.64 0.54 0.57 0.66 0.72 0.83 0.99 0.90 0.83 0.75 0.63
0.30 0.17 0.15 0.15 0.19 0.22 0.24 0.22 0.20 0.19 0.18 0.17 0.16 0.15 0.14 0.15 0.15 0.17 0.21 0.24 0.25 0.26 0.24 0.25 0.25 0.26 0.31 0.35 0.41 0.45 0.55 0.69 0.65 0.68 0.60 0.53 0.62 0.78 1.02 0.94 0.82 0.75 0.67
0.56 0.34 0.26 0.26 0.31 0.29 0.27 0.25 0.25 0.23 0.20 0.18 0.17 0.15 0.15 0.16 0.20 0.26 0.28 0.29 0.29 0.33 0.33 0.33 0.34 0.37 0.42 0.43 0.50 0.57 0.69 0.67 0.71 0.81 0.64 0.44 0.59 0.82 1.08 1.08 0.99 0.97 0.84
0.86 0.73 0.63 0.53 0.47 0.49 0.43 0.35 0.37 0.37 0.35 0.31 0.31 0.31 0.34 0.44 0.48 0.59 0.54 0.59 0.53 0.53 0.55 0.56 0.58 0.62 0.65 0.57 0.68 0.79 0.76 0.81 0.99 0.93 0.67 0.51 0.66 0.98 1.14 1.19 1.12 1.06 1.03
1.15 1.05 1.03 0.86 0.66 0.58 0.54 0.66 0.78 0.75 0.77 0.75 0.81 0.78 0.86 0.92 0.91 0.78 0.87 0.96 0.99 1.06 1.06 1.08 1.26 1.13 0.90 0.74 0.93 1.09 0.91 0.93 1.04 0.80 0.58 0.62 0.78 1.06 1.23 1.20 1.17 1.11 1.10
1.58 1.37 1.16 1.13 1.03 0.98 1.01 1.01 1.03 1.14 1.22 1.33 1.39 1.37 1.47 1.28 1.12 1.04 1.27 1.43 1.39 1.38 1.29 1.55 1.77 1.43 1.37 1.48 1.51 1.40 1.26 1.13 1.13 0.92 0.78 0.86 1.00 1.24 1.38 1.26 1.24 1.22 1.07
2.15 2.06 1.96 1.74 1.58 1.54 1.41 1.24 1.13 1.08 1.16 1.27 1.40 1.45 1.61 1.66 1.56 1.59 1.73 1.60 1.57 1.59 1.78 1.80 1.97 1.85 1.74 1.68 1.66 1.76 1.70 1.42 1.35 1.25 1.26 1.30 1.33 1.46 1.55 1.46 1.40 1.36 1.25
2.60 2.71 3.15 2.89 2.39 2.03 1.76 1.47 1.20 1.10 0.98 0.97 1.09 1.32 1.49 1.61 1.72 1.83 1.67 1.55 1.37 1.61 1.86 1.91 1.77 1.94 1.96 2.02 2.00 1.99 2.01 1.76 1.59 1.45 1.50 1.71 1.65 1.60 1.68 1.72 1.67 1.59 1.54
3.43 3.41 3.49 3.72 3.21 2.50 2.00 1.66 1.36 1.08 1.06 1.07 1.09 1.16 1.34 1.49 1.57 1.63 1.57 1.48 1.43 1.58 1.76 1.79 1.79 2.01 2.11 2.10 1.83 1.74 1.74 1.78 1.68 1.47 1.58 1.71 1.74 1.58 1.65 1.85 1.91 1.87 1.86
4.05 4.15 4.12 4.20 3.87 3.29 2.74 2.18 1.66 1.38 1.17 1.17 1.18 1.10 1.11 1.23 1.27 1.38 1.41 1.36 1.40 1.47 1.48 1.47 1.54 1.73 1.71 1.65 1.52 1.48 1.54 1.57 1.63 1.59 1.45 1.47 1.61 1.68 1.61 1.73 1.85 1.90 2.02
4.68 4.87 4.85 4.60 4.44 3.88 3.21 2.68 2.27 1.95 1.64 1.35 1.21 1.06 0.90 0.95 1.00 1.09 1.06 1.08 1.12 1.15 1.15 1.18 1.24 1.36 1.45 1.55 1.55 1.45 1.58 1.64 1.56 1.63 1.59 1.46 1.64 1.55 1.76 1.91 1.88 1.82 2.02
5.84 6.22 6.00 5.30 4.74 4.12 3.45 2.98 2.80 2.54 2.10 1.69 1.51 1.25 1.03 0.91 0.90 0.96 0.96 0.98 0.87 0.89 0.91 0.87 1.00 1.15 1.26 1.32 1.26 1.32 1.31 1.34 1.34 1.31 1.45 1.34 1.41 1.50 1.66 1.77 1.87 1.79 2.04
6.26 6.92 6.77 6.03 5.01 4.20 3.72 3.27 3.08 2.75 2.31 1.86 1.61 1.37 1.11 0.95 0.87 0.84 0.79 0.74 0.67 0.71 0.78 0.83 0.98 1.02 1.02 1.08 1.02 1.10 1.06 0.99 1.06 1.13 1.09 1.13 1.18 1.13 1.35 1.55 1.68 1.44 1.79
5.25 5.73 5.60 4.91 4.28 3.59 3.01 2.44 2.30 2.08 1.85 1.63 1.43 1.20 1.07 0.95 0.86 0.79 0.69 0.71 0.61 0.60 0.62 0.61 0.71 0.77 0.80 0.85 1.03 1.06 0.93 0.85 0.88 0.90 0.86 0.92 0.96 1.04 1.34 1.52 1.53 1.45 1.30
3.75 3.90 3.43 3.13 2.93 2.48 2.20 2.01 1.84 1.75 1.55 1.35 1.23 1.11 0.85 0.78 0.75 0.68 0.71 0.65 0.61 0.61 0.56 0.57 0.64 0.69 0.70 0.73 0.85 0.92 0.87 0.88 0.85 0.69 0.77 0.79 0.86 1.05 1.20 1.19 1.26 1.38 1.17
2.58 2.49 2.19 2.03 2.15 2.04 1.98 1.89 1.76 1.78 1.68 1.46 1.19 1.04 0.83 0.67 0.64 0.65 0.67 0.68 0.66 0.55 0.53 0.57 0.55 0.58 0.58 0.58 0.65 0.75 0.78 0.78 0.72 0.65 0.66 0.71 0.80 0.92 0.96 1.07 0.99 0.98 1.06
1.69 1.73 1.90 1.90 1.90 1.78 1.74 1.51 1.29 1.17 1.06 0.96 0.94 0.89 0.87 0.73 0.63 0.58 0.58 0.66 0.63 0.54 0.59 0.46 0.45 0.51 0.54 0.47 0.47 0.52 0.52 0.60 0.69 0.73 0.67 0.66 0.70 0.70 0.73 0.79 0.82 0.86 0.90
1.26 1.48 1.83 1.87 1.74 1.62 1.54 1.47 1.43 1.30 1.21 1.07 1.01 1.02 0.97 0.95 0.82 0.63 0.53 0.59 0.61 0.61 0.67 0.57 0.55 0.47 0.45 0.42 0.41 0.46 0.46 0.42 0.47 0.61 0.68 0.68 0.66 0.54 0.54 0.58 0.61 0.67 0.73
1.16 1.26 1.45 1.57 1.69 1.70 1.70 1.64 1.50 1.39 1.32 1.19 1.03 0.93 0.88 0.87 0.84 0.75 0.66 0.71 0.70 0.64 0.64 0.59 0.59 0.54 0.51 0.48 0.39 0.41 0.55 0.51 0.40 0.46 0.50 0.56 0.56 0.42 0.43 0.48 0.50 0.56 0.66

GEFSSE_prec_meanprecacc_144.txt.gz
Total_Precipitation_Accumulation
0.12 0.14 0.28 0.27 0.16 0.11 0.13 0.18 0.22 0.22 0.19 0.18 0.17 0.16 0.13 0.09 0.07 0.08 0.09 0.12 0.15 0.19 0.23 0.26 0.31 0.37 0.40 0.46 0.50 0.52 0.48 0.51 0.71 0.79 0.88 1.08 1.31 1.51 1.72 1.92 1.96 1.54 1.33
0.03 0.07 0.23 0.27 0.19 0.14 0.13 0.16 0.20 0.21 0.20 0.18 0.17 0.17 0.15 0.11 0.09 0.09 0.11 0.13 0.15 0.20 0.22 0.23 0.27 0.33 0.39 0.38 0.39 0.39 0.44 0.62 0.84 1.05 1.29 1.41 1.57 1.69 1.75 1.86 1.89 1.40 1.21
0.02 0.03 0.12 0.22 0.18 0.15 0.14 0.15 0.16 0.19 0.18 0.17 0.16 0.15 0.12 0.10 0.11 0.10 0.12 0.13 0.15 0.20 0.18 0.20 0.26 0.30 0.35 0.36 0.35 0.39 0.47 0.69 1.05 1.42 1.63 1.52 1.28 1.54 1.59 1.73 1.70 1.19 1.10
0.02 0.02 0.04 0.15 0.16 0.13 0.14 0.15 0.15 0.15 0.14 0.14 0.14 0.13 0.11 0.11 0.12 0.13 0.14 0.16 0.19 0.22 0.23 0.26 0.31 0.28 0.24 0.28 0.36 0.46 0.55 0.75 1.04 1.46 1.49 1.27 1.01 1.18 1.37 1.30 1.26 1.08 1.01
0.04 0.02 0.07 0.13 0.15 0.13 0.13 0.13 0.13 0.12 0.12 0.13 0.13 0.13 0.11 0.11 0.13 0.15 0.17 0.20 0.24 0.28 0.31 0.32 0.31 0.27 0.24 0.26 0.37 0.49 0.62 0.83 1.03 1.26 1.06 1.15 1.25 1.21 1.16 1.09 1.09 0.95 0.87
0.05 0.04 0.09 0.14 0.16 0.15 0.13 0.13 0.12 0.12 0.12 0.12 0.13 0.12 0.11 0.12 0.15 0.18 0.20 0.22 0.25 0.31 0.30 0.31 0.28 0.28 0.25 0.28 0.42 0.51 0.71 0.94 1.00 0.83 0.76 0.95 0.98 1.14 1.07 1.03 0.94 0.85 0.72
0.05 0.05 0.08 0.16 0.18 0.18 0.16 0.15 0.15 0.14 0.13 0.13 0.14 0.14 0.14 0.16 0.19 0.21 0.22 0.22 0.24 0.31 0.30 0.27 0.27 0.29 0.32 0.36 0.45 0.49 0.65 0.89 0.84 0.66 0.70 0.89 0.86 0.96 1.04 1.04 1.01 0.85 0.70
0.07 0.06 0.11 0.18 0.20 0.21 0.20 0.19 0.18 0.17 0.16 0.15 0.15 0.16 0.18 0.19 0.19 0.21 0.21 0.25 0.26 0.28 0.27 0.28 0.27 0.27 0.34 0.40 0.45 0.47 0.59 0.73 0.66 0.57 0.59 0.69 0.75 0.88 1.06 0.97 0.91 0.82 0.67
0.30 0.17 0.15 0.16 0.20 0.23 0.26 0.24 0.22 0.20 0.19 0.18 0.18 0.17 0.17 0.17 0.18 0.20 0.25 0.28 0.28 0.29 0.28 0.29 0.28 0.29 0.34 0.39 0.45 0.48 0.58 0.70 0.67 0.71 0.62 0.56 0.65 0.83 1.07 0.98 0.86 0.81 0.73
0.57 0.34 0.27 0.26 0.31 0.30 0.28 0.27 0.27 0.25 0.22 0.19 0.19 0.17 0.18 0.19 0.22 0.29 0.32 0.34 0.32 0.36 0.36 0.37 0.38 0.40 0.44 0.47 0.54 0.61 0.73 0.70 0.73 0.84 0.66 0.47 0.63 0.87 1.13 1.12 1.02 1.01 0.88
0.87 0.74 0.64 0.54 0.48 0.50 0.44 0.36 0.39 0.38 0.36 0.34 0.35 0.34 0.39 0.51 0.52 0.64 0.58 0.62 0.55 0.56 0.60 0.61 0.63 0.65 0.67 0.60 0.73 0.82 0.79 0.83 1.01 0.95 0.69 0.53 0.70 1.03 1.19 1.22 1.14 1.09 1.07
1.15 1.06 1.04 0.87 0.67 0.59 0.55 0.68 0.81 0.77 0.79 0.78 0.86 0.84 0.92 0.98 0.97 0.82 0.90 0.99 1.01 1.09 1.09 1.13 1.31 1.15 0.93 0.78 0.97 1.11 0.94 0.94 1.05 0.81 0.60 0.64 0.81 1.10 1.26 1.23 1.19 1.14 1.14
1.60 1.38 1.16 1.14 1.05 1.00 1.03 1.03 1.06 1.17 1.24 1.36 1.43 1.41 1.52 1.32 1.16 1.08 1.31 1.47 1.44 1.40 1.32 1.57 1.79 1.45 1.39 1.53 1.55 1.43 1.28 1.14 1.14 0.93 0.80 0.88 1.03 1.28 1.42 1.31 1.29 1.25 1.10
2.18 2.08 1.97 1.76 1.60 1.57 1.44 1.25 1.16 1.11 1.18 1.29 1.42 1.48 1.64 1.69 1.58 1.62 1.76 1.64 1.61 1.63 1.82 1.82 2.01 1.89 1.77 1.71 1.68 1.79 1.72 1.44 1.37 1.27 1.29 1.31 1.36 1.50 1.60 1.51 1.47 1.43 1.29
2.63 2.73 3.17 2.92 2.44 2.07 1.79 1.50 1.23 1.12 1.00 0.99 1.11 1.33 1.51 1.63 1.74 1.86 1.70 1.58 1.38 1.62 1.88 1.94 1.80 1.99 1.99 2.04 2.02 2.01 2.04 1.78 1.61 1.48 1.53 1.72 1.67 1.63 1.72 1.77 1.72 1.66 1.60
3.48 3.46 3.52 3.78 3.28 2.56 2.05 1.70 1.39 1.11 1.09 1.09 1.11 1.18 1.36 1.51 1.59 1.65 1.60 1.51 1.45 1.59 1.78 1.81 1.82 2.06 2.15 2.13 1.85 1.75 1.75 1.78 1.69 1.49 1.61 1.74 1.77 1.62 1.69 1.90 1.96 1.93 1.92
4.14 4.24 4.21 4.32 3.95 3.37 2.84 2.26 1.72 1.42 1.22 1.21 1.21 1.12 1.13 1.26 1.31 1.41 1.44 1.39 1.44 1.50 1.51 1.49 1.57 1.77 1.76 1.69 1.56 1.50 1.55 1.59 1.65 1.61 1.47 1.51 1.66 1.72 1.65 1.78 1.90 1.95 2.09
4.80 5.02 5.01 4.72 4.53 4.01 3.36 2.77 2.33 2.00 1.69 1.41 1.27 1.10 0.92 0.99 1.03 1.12 1.08 1.11 1.16 1.19 1.19 1.23 1.29 1.42 1.52 1.61 1.61 1.49 1.61 1.69 1.60 1.67 1.63 1.51 1.70 1.60 1.81 1.95 1.92 1.87 2.09
5.95 6.39 6.14 5.40 4.84 4.26 3.62 3.08 2.86 2.61 2.16 1.75 1.57 1.32 1.08 0.95 0.94 1.00 0.99 1.01 0.91 0.94 0.96 0.91 1.05 1.21 1.34 1.41 1.31 1.37 1.35 1.37 1.39 1.34 1.49 1.38 1.47 1.56 1.71 1.81 1.91 1.83 2.09
6.32 7.00 6.84 6.11 5.10 4.35 3.88 3.37 3.15 2.83 2.38 1.92 1.67 1.46 1.19 1.01 0.91 0.89 0.84 0.78 0.71 0.77 0.85 0.90 1.06 1.10 1.11 1.17 1.07 1.15 1.11 1.01 1.09 1.16 1.13 1.16 1.22 1.16 1.38 1.59 1.76 1.50 1.82
5.30 5.79 5.65 4.97 4.37 3.70 3.13 2.56 2.39 2.17 1.94 1.70 1.48 1.27 1.14 1.00 0.92 0.86 0.76 0.78 0.67 0.67 0.70 0.69 0.77 0.84 0.87 0.93 1.11 1.14 0.98 0.88 0.91 0.93 0.89 0.96 0.99 1.06 1.37 1.59 1.62 1.53 1.36
3.79 3.96 3.47 3.21 3.04 2.58 2.29 2.11 1.94 1.83 1.65 1.44 1.31 1.18 0.93 0.86 0.83 0.74 0.79 0.74 0.68 0.69 0.65 0.66 0.72 0.77 0.78 0.81 0.94 1.01 0.93 0.94 0.90 0.70 0.79 0.84 0.89 1.09 1.24 1.24 1.32 1.48 1.27
2.61 2.55 2.25 2.10 2.26 2.14 2.08 1.98 1.85 1.87 1.81 1.56 1.26 1.13 0.91 0.78 0.75 0.75 0.75 0.77 0.75 0.62 0.61 0.66 0.64 0.66 0.67 0.67 0.73 0.84 0.84 0.85 0.79 0.69 0.68 0.72 0.83 1.00 1.03 1.11 1.02 1.06 1.15
1.72 1.77 1.94 1.94 1.96 1.86 1.82 1.59 1.39 1.26 1.16 1.05 1.03 0.99 0.97 0.84 0.76 0.70 0.68 0.77 0.74 0.62 0.68 0.54 0.52 0.60 0.64 0.56 0.54 0.58 0.57 0.66 0.75 0.80 0.72 0.68 0.74 0.76 0.80 0.86 0.88 0.94 0.96
1.28 1.51 1.86 1.90 1.79 1.68 1.61 1.55 1.52 1.38 1.31 1.19 1.16 1.18 1.13 1.08 0.95 0.76 0.64 0.71 0.73 0.71 0.76 0.66 0.65 0.57 0.54 0.50 0.48 0.53 0.53 0.49 0.52 0.68 0.76 0.73 0.71 0.57 0.58 0.63 0.67 0.74 0.79
1.17 1.28 1.47 1.60 1.72 1.75 1.76 1.74 1.63 1.50 1.43 1.31 1.18 1.08 1.05 1.01 0.95 0.85 0.77 0.82 0.81 0.74 0.75 0.70 0.71 0.66 0.62 0.58 0.47 0.46 0.62 0.58 0.46 0.53 0.56 0.62 0.63 0.46 0.45 0.52 0.56 0.63 0.72

GEFSSE_prec_meanprecacc_150.txt.gz
Total_Precipitation_Accumulation
0.12 0.14 0.29 0.28 0.18 0.13 0.15 0.21 0.26 0.25 0.21 0.20 0.20 0.18 0.16 0.12 0.10 0.11 0.12 0.15 0.18 0.22 0.27 0.30 0.36 0.43 0.45 0.49 0.53 0.54 0.50 0.55 0.75 0.81 0.91 1.12 1.36 1.58 1.82 2.02 2.07 1.62 1.40
0.03 0.07 0.24 0.28 0.20 0.15 0.15 0.18 0.23 0.24 0.22 0.21 0.19 0.18 0.17 0.14 0.11 0.12 0.15 0.17 0.18 0.24 0.26 0.27 0.31 0.38 0.43 0.40 0.42 0.41 0.46 0.65 0.88 1.09 1.34 1.46 1.63 1.76 1.85 1.98 2.03 1.49 1.26
0.02 0.03 0.12 0.22 0.19 0.16 0.15 0.16 0.19 0.21 0.21 0.20 0.18 0.16 0.14 0.12 0.13 0.13 0.15 0.17 0.19 0.23 0.22 0.24 0.29 0.35 0.38 0.39 0.38 0.40 0.49 0.72 1.11 1.51 1.75 1.63 1.36 1.61 1.70 1.84 1.77 1.23 1.14
0.02 0.02 0.04 0.16 0.18 0.15 0.15 0.16 0.17 0.17 0.16 0.16 0.16 0.15 0.13 0.13 0.15 0.16 0.17 0.19 0.23 0.26 0.29 0.32 0.35 0.31 0.28 0.31 0.38 0.47 0.56 0.79 1.14 1.64 1.67 1.39 1.08 1.24 1.45 1.38 1.31 1.11 1.05
0.04 0.02 0.07 0.14 0.16 0.15 0.14 0.14 0.15 0.14 0.14 0.15 0.15 0.15 0.13 0.14 0.16 0.18 0.20 0.24 0.29 0.37 0.39 0.38 0.35 0.29 0.27 0.28 0.38 0.51 0.64 0.90 1.15 1.43 1.20 1.27 1.35 1.28 1.24 1.15 1.14 0.99 0.90
0.06 0.04 0.09 0.14 0.16 0.16 0.14 0.14 0.14 0.14 0.14 0.15 0.16 0.15 0.13 0.14 0.18 0.22 0.24 0.26 0.29 0.37 0.36 0.37 0.32 0.31 0.28 0.31 0.44 0.53 0.74 1.02 1.10 0.91 0.87 1.07 1.05 1.20 1.14 1.09 1.00 0.88 0.75
0.05 0.06 0.09 0.16 0.19 0.19 0.18 0.18 0.17 0.16 0.15 0.16 0.16 0.15 0.16 0.18 0.22 0.27 0.27 0.25 0.27 0.34 0.34 0.31 0.32 0.33 0.35 0.39 0.46 0.51 0.67 0.94 0.92 0.75 0.79 0.99 0.91 0.99 1.08 1.09 1.06 0.89 0.73
0.08 0.06 0.11 0.18 0.21 0.21 0.22 0.22 0.21 0.19 0.17 0.17 0.17 0.18 0.19 0.21 0.22 0.25 0.26 0.29 0.29 0.31 0.31 0.31 0.31 0.30 0.37 0.42 0.47 0.48 0.60 0.77 0.70 0.62 0.66 0.74 0.78 0.90 1.08 1.01 0.95 0.87 0.71
0.30 0.17 0.15 0.16 0.20 0.23 0.27 0.26 0.24 0.21 0.20 0.19 0.20 0.19 0.19 0.19 0.20 0.24 0.29 0.33 0.31 0.33 0.31 0.32 0.32 0.33 0.37 0.41 0.47 0.49 0.59 0.74 0.70 0.75 0.66 0.58 0.67 0.86 1.10 1.01 0.89 0.85 0.77
0.57 0.34 0.27 0.26 0.31 0.31 0.29 0.27 0.29 0.26 0.23 0.21 0.20 0.19 0.20 0.21 0.24 0.32 0.36 0.40 0.38 0.41 0.39 0.40 0.40 0.43 0.47 0.48 0.54 0.61 0.74 0.73 0.76 0.86 0.70 0.48 0.64 0.89 1.16 1.15 1.04 1.03 0.90
0.87 0.74 0.64 0.55 0.48 0.50 0.45 0.36 0.41 0.39 0.38 0.36 0.37 0.37 0.46 0.62 0.59 0.69 0.62 0.65 0.60 0.61 0.63 0.65 0.66 0.67 0.69 0.60 0.73 0.82 0.81 0.88 1.05 0.98 0.73 0.54 0.71 1.05 1.23 1.25 1.16 1.12 1.10
1.16 1.06 1.04 0.88 0.68 0.60 0.56 0.70 0.86 0.81 0.82 0.85 0.92 0.89 1.04 1.13 1.12 0.90 0.94 1.02 1.04 1.12 1.12 1.16 1.34 1.17 0.95 0.81 0.98 1.12 0.95 0.97 1.07 0.82 0.61 0.65 0.82 1.12 1.30 1.25 1.21 1.16 1.16
1.60 1.39 1.16 1.15 1.07 1.05 1.07 1.07 1.11 1.25 1.31 1.43 1.50 1.46 1.61 1.41 1.25 1.15 1.35 1.51 1.48 1.45 1.37 1.60 1.82 1.51 1.45 1.59 1.59 1.44 1.29 1.16 1.15 0.95 0.81 0.89 1.03 1.30 1.43 1.32 1.31 1.27 1.11
2.20 2.10 1.98 1.77 1.63 1.62 1.48 1.29 1.21 1.18 1.25 1.36 1.48 1.52 1.69 1.77 1.68 1.71 1.85 1.71 1.68 1.72 1.91 1.88 2.08 1.95 1.83 1.74 1.70 1.82 1.75 1.46 1.39 1.30 1.30 1.32 1.37 1.51 1.61 1.52 1.48 1.44 1.30
2.67 2.77 3.20 2.98 2.46 2.10 1.82 1.53 1.27 1.21 1.08 1.05 1.17 1.37 1.55 1.69 1.81 1.93 1.78 1.66 1.44 1.66 1.92 2.01 1.84 2.03 2.03 2.07 2.04 2.03 2.06 1.80 1.63 1.51 1.56 1.73 1.67 1.64 1.74 1.78 1.73 1.67 1.61
3.53 3.50 3.59 3.86 3.31 2.58 2.07 1.74 1.44 1.16 1.15 1.15 1.17 1.22 1.40 1.55 1.64 1.71 1.65 1.58 1.52 1.64 1.81 1.84 1.85 2.10 2.19 2.16 1.87 1.76 1.76 1.80 1.71 1.53 1.66 1.77 1.78 1.62 1.70 1.92 1.98 1.95 1.94
4.17 4.27 4.27 4.38 4.00 3.40 2.86 2.29 1.77 1.47 1.25 1.25 1.26 1.16 1.17 1.30 1.35 1.46 1.49 1.44 1.50 1.54 1.54 1.52 1.59 1.80 1.79 1.73 1.59 1.52 1.57 1.60 1.67 1.64 1.52 1.56 1.69 1.74 1.66 1.80 1.92 1.97 2.10
4.85 5.06 5.07 4.78 4.58 4.06 3.41 2.82 2.38 2.04 1.74 1.46 1.32 1.15 0.97 1.04 1.08 1.17 1.12 1.15 1.19 1.21 1.21 1.26 1.31 1.44 1.56 1.66 1.65 1.52 1.63 1.71 1.61 1.68 1.65 1.55 1.75 1.65 1.85 1.97 1.94 1.88 2.10
6.01 6.44 6.20 5.46 4.90 4.31 3.67 3.13 2.91 2.66 2.22 1.80 1.62 1.39 1.15 1.00 0.97 1.03 1.04 1.06 0.93 0.96 0.98 0.93 1.08 1.24 1.40 1.47 1.34 1.41 1.37 1.40 1.41 1.35 1.51 1.40 1.51 1.62 1.78 1.86 1.93 1.85 2.11
6.38 7.04 6.89 6.16 5.16 4.41 3.95 3.44 3.19 2.87 2.44 1.97 1.72 1.53 1.25 1.06 0.95 0.94 0.89 0.82 0.74 0.81 0.89 0.95 1.12 1.15 1.16 1.22 1.10 1.22 1.15 1.04 1.11 1.17 1.15 1.20 1.26 1.20 1.44 1.65 1.82 1.54 1.85
5.34 5.82 5.69 5.02 4.43 3.78 3.23 2.64 2.44 2.21 2.00 1.75 1.52 1.31 1.20 1.06 0.98 0.93 0.83 0.86 0.73 0.73 0.74 0.72 0.82 0.91 0.93 0.97 1.17 1.21 1.02 0.90 0.94 0.95 0.91 1.00 1.02 1.09 1.41 1.66 1.70 1.63 1.46
3.81 3.99 3.52 3.26 3.09 2.65 2.37 2.21 1.99 1.89 1.70 1.48 1.35 1.23 0.98 0.93 0.93 0.83 0.85 0.81 0.75 0.76 0.71 0.72 0.79 0.85 0.87 0.88 1.01 1.14 1.07 1.09 0.99 0.74 0.89 0.92 0.94 1.13 1.29 1.31 1.42 1.61 1.40
2.62 2.58 2.30 2.16 2.32 2.21 2.16 2.07 1.92 1.93 1.88 1.63 1.31 1.19 0.96 0.82 0.81 0.81 0.82 0.83 0.83 0.68 0.69 0.74 0.71 0.74 0.76 0.75 0.78 0.94 1.00 1.06 0.94 0.79 0.79 0.80 0.89 1.08 1.12 1.24 1.13 1.23 1.35
1.73 1.80 1.99 2.00 2.02 1.91 1.90 1.67 1.46 1.33 1.25 1.16 1.12 1.07 1.03 0.88 0.80 0.75 0.75 0.85 0.82 0.71 0.78 0.60 0.59 0.68 0.73 0.63 0.60 0.63 0.65 0.79 0.91 0.98 0.86 0.78 0.83 0.87 0.92 0.98 0.98 1.06 1.12
1.30 1.53 1.90 1.95 1.84 1.72 1.66 1.61 1.60 1.47 1.42 1.32 1.26 1.29 1.23 1.16 1.02 0.80 0.70 0.79 0.82 0.80 0.86 0.75 0.78 0.67 0.62 0.58 0.55 0.59 0.61 0.57 0.60 0.81 0.95 0.89 0.84 0.69 0.69 0.73 0.77 0.84 0.91
1.18 1.30 1.49 1.64 1.76 1.79 1.80 1.79 1.69 1.60 1.57 1.43 1.31 1.20 1.15 1.11 1.04 0.93 0.85 0.92 0.91 0.84 0.85 0.80 0.81 0.75 0.70 0.68 0.57 0.54 0.73 0.67 0.54 0.64 0.70 0.75 0.75 0.57 0.59 0.67 0.66 0.73 0.82

GEFSSE_prec_meanprecacc_156.txt.gz
Total_Precipitation_Accumulation
0.14 0.16 0.32 0.30 0.20 0.15 0.17 0.22 0.27 0.26 0.23 0.22 0.22 0.20 0.17 0.15 0.16 0.16 0.15 0.17 0.19 0.23 0.29 0.32 0.39 0.46 0.48 0.54 0.58 0.58 0.54 0.58 0.78 0.86 0.98 1.18 1.42 1.64 1.88 2.09 2.11 1.64 1.42
0.04 0.08 0.25 0.29 0.21 0.16 0.16 0.19 0.24 0.25 0.23 0.22 0.20 0.20 0.19 0.16 0.14 0.14 0.17 0.18 0.19 0.24 0.27 0.29 0.33 0.40 0.46 0.44 0.46 0.44 0.49 0.69 0.93 1.14 1.41 1.54 1.70 1.84 1.94 2.06 2.07 1.52 1.30
0.02 0.03 0.13 0.23 0.20 0.16 0.16 0.17 0.19 0.22 0.21 0.21 0.19 0.18 0.16 0.14 0.14 0.14 0.17 0.19 0.21 0.24 0.23 0.25 0.31 0.36 0.41 0.44 0.41 0.43 0.53 0.76 1.16 1.56 1.78 1.66 1.41 1.69 1.80 1.92 1.83 1.27 1.18
0.02 0.02 0.04 0.16 0.18 0.15 0.16 0.17 0.18 0.18 0.16 0.16 0.16 0.16 0.14 0.14 0.16 0.17 0.19 0.21 0.25 0.28 0.31 0.34 0.37 0.33 0.30 0.35 0.42 0.51 0.62 0.86 1.21 1.71 1.70 1.42 1.16 1.34 1.52 1.43 1.37 1.15 1.08
0.04 0.02 0.07 0.14 0.16 0.15 0.14 0.15 0.16 0.15 0.14 0.15 0.16 0.16 0.14 0.15 0.18 0.19 0.23 0.26 0.31 0.39 0.41 0.40 0.37 0.31 0.28 0.32 0.42 0.56 0.71 0.99 1.24 1.48 1.23 1.30 1.42 1.37 1.32 1.21 1.19 1.02 0.91
0.06 0.04 0.09 0.15 0.16 0.16 0.15 0.15 0.14 0.14 0.15 0.16 0.16 0.15 0.14 0.16 0.20 0.24 0.28 0.30 0.32 0.39 0.38 0.39 0.34 0.33 0.31 0.34 0.46 0.57 0.81 1.12 1.17 0.94 0.90 1.10 1.08 1.26 1.21 1.15 1.05 0.91 0.76
0.05 0.06 0.09 0.16 0.19 0.20 0.18 0.18 0.17 0.16 0.15 0.16 0.16 0.16 0.17 0.20 0.24 0.30 0.32 0.29 0.28 0.35 0.36 0.32 0.34 0.36 0.39 0.41 0.49 0.54 0.74 1.04 0.98 0.80 0.85 1.03 0.93 1.02 1.13 1.13 1.10 0.91 0.75
0.08 0.06 0.11 0.18 0.21 0.22 0.23 0.22 0.21 0.19 0.17 0.17 0.17 0.18 0.20 0.22 0.23 0.27 0.29 0.30 0.30 0.32 0.32 0.33 0.33 0.32 0.39 0.44 0.50 0.51 0.66 0.84 0.76 0.69 0.73 0.78 0.81 0.92 1.11 1.04 0.99 0.89 0.73
0.31 0.17 0.15 0.16 0.20 0.23 0.27 0.26 0.24 0.22 0.20 0.19 0.20 0.20 0.19 0.19 0.21 0.25 0.32 0.34 0.32 0.34 0.32 0.35 0.34 0.34 0.39 0.43 0.49 0.52 0.64 0.81 0.76 0.80 0.70 0.60 0.69 0.87 1.12 1.03 0.91 0.87 0.78
0.58 0.35 0.27 0.26 0.31 0.31 0.29 0.27 0.29 0.26 0.23 0.21 0.21 0.19 0.21 0.23 0.24 0.33 0.38 0.41 0.39 0.43 0.41 0.42 0.42 0.44 0.48 0.49 0.56 0.64 0.79 0.79 0.80 0.92 0.74 0.50 0.66 0.92 1.19 1.19 1.09 1.07 0.92
0.88 0.74 0.64 0.55 0.48 0.50 0.45 0.36 0.41 0.40 0.38 0.36 0.38 0.38 0.47 0.63 0.60 0.70 0.62 0.66 0.62 0.63 0.65 0.67 0.68 0.68 0.70 0.62 0.75 0.85 0.84 0.95 1.11 1.02 0.77 0.58 0.73 1.08 1.27 1.29 1.21 1.15 1.13
1.17 1.07 1.04 0.89 0.68 0.60 0.56 0.70 0.87 0.82 0.83 0.85 0.92 0.90 1.05 1.14 1.13 0.91 0.95 1.04 1.06 1.15 1.15 1.19 1.36 1.19 0.96 0.82 1.00 1.14 0.99 1.02 1.14 0.90 0.64 0.68 0.84 1.15 1.33 1.28 1.24 1.20 1.19
1.64 1.41 1.19 1.18 1.09 1.07 1.09 1.09 1.13 1.27 1.33 1.46 1.52 1.48 1.62 1.42 1.27 1.16 1.36 1.53 1.49 1.47 1.38 1.61 1.84 1.52 1.47 1.61 1.61 1.46 1.33 1.22 1.24 1.04 0.86 0.93 1.06 1.32 1.46 1.34 1.33 1.30 1.14
2.27 2.19 2.06 1.83 1.66 1.65 1.50 1.33 1.26 1.26 1.30 1.40 1.51 1.55 1.71 1.79 1.70 1.72 1.86 1.72 1.69 1.73 1.92 1.90 2.11 1.99 1.85 1.78 1.74 1.85 1.78 1.51 1.49 1.40 1.34 1.34 1.39 1.53 1.63 1.54 1.49 1.47 1.33
2.78 2.99 3.39 3.15 2.52 2.15 1.86 1.57 1.30 1.27 1.12 1.08 1.19 1.40 1.58 1.72 1.84 1.96 1.80 1.67 1.47 1.68 1.96 2.05 1.87 2.06 2.06 2.09 2.07 2.06 2.09 1.84 1.68 1.58 1.59 1.76 1.69 1.66 1.76 1.79 1.74 1.69 1.63
3.65 3.66 3.76 4.07 3.44 2.67 2.13 1.78 1.47 1.20 1.19 1.18 1.19 1.24 1.43 1.58 1.67 1.74 1.67 1.60 1.55 1.66 1.85 1.87 1.89 2.13 2.22 2.19 1.90 1.79 1.80 1.83 1.74 1.56 1.68 1.78 1.80 1.65 1.72 1.94 2.00 1.97 1.96
4.24 4.34 4.36 4.54 4.13 3.51 2.92 2.33 1.80 1.49 1.28 1.28 1.29 1.20 1.21 1.34 1.38 1.49 1.52 1.46 1.53 1.56 1.56 1.55 1.64 1.83 1.83 1.77 1.62 1.55 1.60 1.63 1.70 1.68 1.55 1.57 1.70 1.76 1.68 1.82 1.95 1.99 2.12
4.90 5.11 5.13 4.89 4.66 4.12 3.45 2.87 2.41 2.06 1.76 1.49 1.36 1.21 1.02 1.09 1.12 1.22 1.17 1.18 1.20 1.23 1.22 1.28 1.33 1.48 1.60 1.69 1.68 1.55 1.67 1.74 1.64 1.73 1.69 1.59 1.78 1.67 1.89 2.02 1.99 1.92 2.13
6.04 6.48 6.24 5.53 4.95 4.36 3.72 3.19 2.96 2.70 2.27 1.84 1.67 1.46 1.23 1.10 1.05 1.07 1.08 1.09 0.95 0.98 1.00 0.96 1.11 1.28 1.45 1.51 1.37 1.45 1.41 1.44 1.44 1.40 1.58 1.46 1.56 1.69 1.85 1.92 2.00 1.91 2.17
6.40 7.07 6.93 6.21 5.21 4.46 4.02 3.53 3.27 2.94 2.50 2.02 1.77 1.59 1.37 1.26 1.07 0.99 0.92 0.85 0.76 0.84 0.93 0.99 1.20 1.21 1.20 1.25 1.15 1.29 1.24 1.11 1.17 1.23 1.22 1.29 1.36 1.30 1.54 1.75 1.89 1.61 1.94
5.36 5.85 5.72 5.07 4.48 3.83 3.30 2.71 2.54 2.27 2.04 1.80 1.57 1.36 1.32 1.26 1.06 0.96 0.85 0.90 0.77 0.77 0.78 0.76 0.87 0.96 0.97 1.01 1.23 1.30 1.13 0.99 1.02 1.03 1.01 1.12 1.19 1.23 1.54 1.82 1.87 1.77 1.59
3.83 4.01 3.54 3.29 3.13 2.70 2.43 2.29 2.11 1.94 1.74 1.53 1.40 1.31 1.10 1.07 0.99 0.88 0.89 0.84 0.79 0.81 0.77 0.76 0.83 0.89 0.90 0.93 1.07 1.21 1.13 1.17 1.08 0.86 1.04 1.08 1.10 1.29 1.46 1.53 1.72 1.89 1.62
2.65 2.61 2.34 2.20 2.38 2.26 2.21 2.14 2.03 1.98 1.91 1.67 1.37 1.25 1.03 0.89 0.87 0.87 0.84 0.86 0.86 0.73 0.74 0.78 0.75 0.78 0.80 0.80 0.84 1.00 1.05 1.10 0.99 0.87 0.92 0.97 1.07 1.24 1.29 1.41 1.31 1.41 1.52
1.77 1.85 2.04 2.05 2.08 1.96 1.94 1.73 1.53 1.39 1.28 1.20 1.17 1.11 1.08 0.94 0.85 0.79 0.78 0.89 0.86 0.75 0.82 0.63 0.64 0.73 0.78 0.68 0.65 0.68 0.69 0.82 0.94 1.03 0.97 0.96 1.00 1.04 1.08 1.12 1.13 1.21 1.27
1.34 1.58 1.93 1.98 1.88 1.76 1.70 1.65 1.65 1.52 1.47 1.38 1.33 1.34 1.27 1.22 1.08 0.86 0.75 0.83 0.87 0.84 0.90 0.79 0.85 0.73 0.66 0.61 0.59 0.65 0.67 0.63 0.64 0.85 1.00 0.99 0.96 0.80 0.80 0.85 0.90 0.97 1.04
1.22 1.32 1.51 1.66 1.78 1.80 1.82 1.82 1.73 1.64 1.62 1.49 1.35 1.23 1.19 1.16 1.10 1.00 0.91 0.99 0.97 0.90 0.90 0.86 0.89 0.82 0.76 0.73 0.62 0.60 0.79 0.73 0.59 0.71 0.73 0.79 0.80 0.63 0.68 0.78 0.79 0.85 0.92

GEFSSE_prec_meanprecacc_162.txt.gz
Total_Precipitation_Accumulation
0.17 0.21 0.38 0.34 0.23 0.18 0.19 0.25 0.30 0.28 0.26 0.26 0.25 0.24 0.26 0.26 0.25 0.26 0.21 0.20 0.24 0.29 0.34 0.38 0.46 0.52 0.55 0.61 0.65 0.64 0.60 0.62 0.82 0.90 1.03 1.24 1.49 1.71 1.95 2.15 2.17 1.68 1.48
0.05 0.10 0.30 0.32 0.23 0.17 0.18 0.21 0.26 0.28 0.26 0.24 0.22 0.22 0.21 0.19 0.17 0.18 0.22 0.24 0.24 0.30 0.32 0.35 0.38 0.45 0.52 0.49 0.52 0.49 0.53 0.73 0.97 1.21 1.50 1.64 1.81 1.93 2.02 2.13 2.13 1.56 1.36
0.03 0.04 0.15 0.25 0.21 0.17 0.16 0.19 0.21 0.23 0.23 0.23 0.22 0.20 0.17 0.17 0.18 0.18 0.21 0.24 0.25 0.28 0.28 0.30 0.35 0.41 0.46 0.49 0.47 0.48 0.60 0.85 1.25 1.64 1.86 1.71 1.48 1.78 1.89 2.01 1.91 1.34 1.25
0.02 0.02 0.05 0.17 0.19 0.16 0.16 0.19 0.18 0.19 0.17 0.17 0.17 0.17 0.16 0.17 0.19 0.20 0.22 0.24 0.28 0.31 0.34 0.38 0.41 0.38 0.34 0.40 0.46 0.56 0.69 0.93 1.30 1.77 1.74 1.44 1.20 1.44 1.62 1.52 1.44 1.22 1.15
0.05 0.03 0.07 0.15 0.17 0.15 0.15 0.16 0.17 0.15 0.15 0.16 0.16 0.17 0.16 0.18 0.21 0.22 0.25 0.29 0.34 0.43 0.45 0.44 0.41 0.35 0.33 0.37 0.46 0.61 0.79 1.07 1.32 1.53 1.25 1.33 1.46 1.46 1.40 1.28 1.26 1.10 0.96
0.06 0.05 0.10 0.16 0.17 0.17 0.15 0.15 0.15 0.15 0.16 0.17 0.18 0.17 0.16 0.19 0.23 0.26 0.30 0.32 0.34 0.42 0.41 0.43 0.38 0.37 0.35 0.39 0.51 0.63 0.91 1.20 1.21 0.95 0.92 1.12 1.11 1.33 1.28 1.21 1.11 0.96 0.80
0.05 0.06 0.09 0.16 0.19 0.20 0.19 0.19 0.18 0.17 0.16 0.17 0.18 0.17 0.19 0.24 0.28 0.33 0.35 0.32 0.30 0.38 0.39 0.37 0.40 0.40 0.42 0.45 0.53 0.59 0.82 1.10 1.00 0.81 0.86 1.03 0.94 1.08 1.20 1.19 1.16 0.95 0.79
0.08 0.06 0.11 0.18 0.21 0.22 0.23 0.23 0.22 0.20 0.18 0.18 0.19 0.19 0.22 0.26 0.28 0.30 0.33 0.34 0.32 0.35 0.35 0.37 0.38 0.36 0.42 0.49 0.54 0.57 0.70 0.86 0.77 0.69 0.73 0.79 0.84 0.97 1.16 1.09 1.05 0.93 0.76
0.31 0.17 0.16 0.16 0.21 0.24 0.28 0.27 0.25 0.22 0.21 0.21 0.21 0.21 0.21 0.22 0.24 0.29 0.35 0.38 0.36 0.37 0.37 0.39 0.37 0.37 0.43 0.46 0.53 0.57 0.68 0.83 0.77 0.81 0.70 0.62 0.72 0.91 1.16 1.07 0.97 0.92 0.81
0.58 0.35 0.27 0.27 0.32 0.31 0.30 0.29 0.30 0.26 0.23 0.22 0.22 0.20 0.23 0.25 0.27 0.36 0.41 0.44 0.43 0.47 0.44 0.45 0.45 0.47 0.51 0.53 0.60 0.71 0.85 0.82 0.82 0.94 0.76 0.51 0.68 0.94 1.22 1.23 1.14 1.11 0.96
0.88 0.75 0.65 0.55 0.48 0.50 0.45 0.37 0.42 0.40 0.39 0.37 0.39 0.40 0.49 0.64 0.61 0.71 0.64 0.68 0.64 0.66 0.67 0.70 0.71 0.71 0.73 0.66 0.81 0.94 0.90 0.97 1.12 1.05 0.81 0.59 0.75 1.10 1.30 1.33 1.27 1.21 1.17
1.18 1.08 1.05 0.89 0.69 0.61 0.57 0.71 0.87 0.82 0.83 0.86 0.93 0.91 1.05 1.14 1.14 0.92 0.97 1.08 1.10 1.18 1.18 1.22 1.39 1.21 0.98 0.83 1.04 1.18 1.02 1.04 1.15 0.92 0.67 0.71 0.88 1.20 1.38 1.32 1.27 1.27 1.26
1.66 1.43 1.21 1.19 1.11 1.09 1.10 1.09 1.13 1.27 1.34 1.46 1.53 1.49 1.63 1.43 1.28 1.18 1.37 1.56 1.52 1.49 1.40 1.63 1.86 1.54 1.47 1.61 1.62 1.48 1.36 1.23 1.25 1.05 0.88 0.95 1.10 1.38 1.52 1.40 1.39 1.36 1.20
2.32 2.23 2.11 1.87 1.69 1.67 1.52 1.34 1.27 1.27 1.32 1.41 1.52 1.56 1.73 1.81 1.71 1.73 1.87 1.73 1.71 1.75 1.93 1.91 2.12 2.00 1.86 1.79 1.75 1.87 1.80 1.53 1.50 1.41 1.36 1.38 1.42 1.57 1.68 1.58 1.54 1.54 1.38
2.85 3.07 3.48 3.21 2.56 2.19 1.90 1.59 1.32 1.29 1.16 1.11 1.21 1.42 1.60 1.74 1.86 1.97 1.81 1.69 1.49 1.70 1.97 2.05 1.88 2.07 2.07 2.10 2.08 2.08 2.10 1.85 1.69 1.59 1.61 1.79 1.73 1.70 1.80 1.85 1.79 1.77 1.69
3.69 3.70 3.80 4.13 3.48 2.70 2.17 1.81 1.50 1.22 1.23 1.23 1.22 1.27 1.46 1.61 1.70 1.76 1.69 1.61 1.57 1.68 1.86 1.89 1.90 2.14 2.23 2.20 1.91 1.81 1.81 1.85 1.76 1.59 1.71 1.81 1.85 1.69 1.76 2.00 2.07 2.04 2.03
4.27 4.37 4.39 4.58 4.17 3.55 2.96 2.37 1.83 1.53 1.33 1.33 1.35 1.25 1.26 1.39 1.42 1.51 1.53 1.48 1.54 1.59 1.59 1.57 1.65 1.85 1.85 1.80 1.65 1.57 1.61 1.65 1.72 1.71 1.58 1.61 1.73 1.81 1.75 1.88 2.02 2.05 2.17
4.94 5.14 5.15 4.91 4.69 4.16 3.49 2.91 2.47 2.14 1.83 1.56 1.42 1.26 1.10 1.16 1.18 1.25 1.19 1.19 1.21 1.24 1.25 1.31 1.36 1.52 1.64 1.72 1.70 1.57 1.70 1.76 1.66 1.75 1.72 1.63 1.81 1.70 1.94 2.08 2.06 2.00 2.19
6.09 6.51 6.27 5.56 5.01 4.41 3.78 3.25 3.03 2.77 2.35 1.92 1.73 1.51 1.28 1.15 1.10 1.11 1.10 1.10 0.96 1.00 1.03 0.99 1.14 1.32 1.48 1.53 1.40 1.49 1.45 1.47 1.47 1.43 1.62 1.49 1.59 1.71 1.88 1.98 2.08 2.01 2.26
6.45 7.12 6.97 6.26 5.31 4.55 4.10 3.60 3.33 3.00 2.56 2.08 1.81 1.64 1.40 1.29 1.11 1.01 0.95 0.88 0.78 0.86 0.96 1.04 1.25 1.26 1.24 1.28 1.19 1.34 1.29 1.15 1.22 1.27 1.27 1.34 1.41 1.33 1.57 1.78 1.95 1.69 2.03
5.41 5.94 5.78 5.12 4.58 3.94 3.38 2.79 2.59 2.31 2.09 1.84 1.62 1.41 1.36 1.30 1.10 1.01 0.90 0.95 0.81 0.80 0.82 0.81 0.93 1.00 0.99 1.04 1.26 1.33 1.17 1.03 1.06 1.08 1.06 1.18 1.25 1.28 1.59 1.86 1.92 1.83 1.65
3.90 4.14 3.62 3.38 3.29 2.84 2.51 2.39 2.20 1.99 1.78 1.58 1.47 1.37 1.16 1.10 1.02 0.92 0.95 0.91 0.84 0.86 0.82 0.80 0.89 0.94 0.94 0.98 1.11 1.24 1.16 1.19 1.10 0.89 1.08 1.13 1.15 1.34 1.51 1.60 1.79 1.94 1.67
2.72 2.68 2.42 2.32 2.54 2.40 2.31 2.23 2.15 2.05 1.94 1.69 1.40 1.30 1.09 0.94 0.91 0.91 0.89 0.92 0.92 0.78 0.78 0.82 0.80 0.83 0.85 0.85 0.88 1.04 1.08 1.11 1.00 0.90 0.97 1.01 1.11 1.29 1.35 1.47 1.37 1.46 1.59
1.84 1.91 2.10 2.14 2.18 2.05 2.02 1.80 1.62 1.46 1.31 1.22 1.19 1.14 1.13 0.99 0.90 0.83 0.83 0.93 0.91 0.79 0.85 0.67 0.68 0.79 0.83 0.72 0.69 0.71 0.72 0.85 0.96 1.05 1.01 0.99 1.03 1.08 1.13 1.17 1.18 1.25 1.32
1.41 1.63 1.98 2.03 1.95 1.83 1.76 1.71 1.69 1.57 1.49 1.40 1.36 1.36 1.31 1.28 1.13 0.92 0.81 0.89 0.93 0.89 0.93 0.83 0.90 0.77 0.70 0.64 0.62 0.68 0.71 0.66 0.66 0.87 1.03 1.03 1.00 0.84 0.85 0.91 0.96 1.01 1.08
1.28 1.38 1.56 1.70 1.83 1.86 1.86 1.87 1.76 1.67 1.65 1.50 1.36 1.25 1.23 1.22 1.16 1.07 0.97 1.04 1.04 0.97 0.96 0.90 0.94 0.88 0.81 0.76 0.65 0.64 0.83 0.78 0.64 0.74 0.76 0.83 0.83 0.66 0.72 0.82 0.83 0.89 0.96

GEFSSE_prec_meanprecacc_168.txt.gz
Total_Precipitation_Accumulation
0.19 0.25 0.46 0.43 0.29 0.22 0.23 0.28 0.34 0.32 0.29 0.30 0.33 0.35 0.38 0.36 0.35 0.33 0.27 0.29 0.31 0.35 0.41 0.46 0.53 0.59 0.63 0.70 0.71 0.71 0.66 0.67 0.86 0.95 1.11 1.33 1.58 1.81 2.03 2.21 2.20 1.71 1.53
0.06 0.12 0.35 0.38 0.28 0.22 0.21 0.23 0.29 0.31 0.29 0.28 0.28 0.28 0.27 0.26 0.24 0.24 0.29 0.32 0.32 0.36 0.39 0.42 0.48 0.53 0.57 0.54 0.57 0.55 0.60 0.80 1.03 1.28 1.59 1.74 1.90 2.02 2.09 2.19 2.18 1.61 1.40
0.04 0.05 0.18 0.29 0.25 0.20 0.20 0.22 0.23 0.26 0.26 0.26 0.26 0.24 0.22 0.22 0.24 0.23 0.28 0.31 0.33 0.35 0.34 0.36 0.42 0.48 0.52 0.55 0.52 0.54 0.67 0.95 1.34 1.72 1.95 1.81 1.57 1.86 1.96 2.07 1.99 1.41 1.31
0.03 0.03 0.07 0.19 0.21 0.18 0.20 0.22 0.21 0.22 0.20 0.20 0.20 0.21 0.20 0.21 0.23 0.25 0.27 0.32 0.36 0.37 0.39 0.43 0.46 0.42 0.40 0.45 0.51 0.62 0.77 1.04 1.38 1.83 1.80 1.50 1.27 1.50 1.68 1.59 1.53 1.29 1.22
0.05 0.04 0.09 0.17 0.19 0.17 0.18 0.21 0.20 0.17 0.17 0.18 0.18 0.21 0.20 0.22 0.25 0.26 0.31 0.37 0.42 0.49 0.49 0.48 0.45 0.38 0.36 0.40 0.50 0.67 0.86 1.17 1.40 1.58 1.30 1.39 1.53 1.52 1.46 1.37 1.36 1.20 1.02
0.07 0.05 0.11 0.18 0.19 0.18 0.17 0.17 0.18 0.18 0.19 0.21 0.22 0.23 0.21 0.24 0.28 0.31 0.36 0.39 0.39 0.47 0.48 0.51 0.44 0.40 0.37 0.42 0.56 0.69 0.99 1.28 1.26 1.00 0.96 1.16 1.16 1.39 1.33 1.28 1.20 1.05 0.84
0.05 0.07 0.10 0.18 0.21 0.21 0.20 0.20 0.20 0.19 0.19 0.20 0.22 0.23 0.25 0.33 0.35 0.40 0.42 0.38 0.35 0.42 0.45 0.46 0.48 0.47 0.47 0.49 0.58 0.64 0.87 1.15 1.04 0.85 0.89 1.07 0.99 1.14 1.26 1.26 1.22 1.02 0.84
0.08 0.07 0.12 0.20 0.23 0.23 0.24 0.24 0.24 0.22 0.21 0.21 0.23 0.25 0.29 0.35 0.35 0.37 0.40 0.42 0.39 0.42 0.41 0.44 0.45 0.44 0.49 0.54 0.60 0.61 0.75 0.89 0.79 0.71 0.76 0.83 0.87 1.02 1.23 1.16 1.09 0.98 0.80
0.31 0.18 0.16 0.17 0.22 0.25 0.29 0.29 0.27 0.24 0.23 0.24 0.27 0.28 0.28 0.30 0.32 0.36 0.43 0.46 0.45 0.45 0.42 0.44 0.43 0.45 0.51 0.53 0.59 0.62 0.73 0.86 0.79 0.83 0.72 0.66 0.75 0.95 1.21 1.12 1.02 0.98 0.88
0.58 0.35 0.28 0.28 0.34 0.33 0.32 0.31 0.32 0.28 0.26 0.26 0.28 0.28 0.31 0.32 0.34 0.42 0.48 0.53 0.51 0.52 0.48 0.49 0.50 0.52 0.58 0.58 0.66 0.77 0.90 0.86 0.85 0.95 0.78 0.55 0.71 0.97 1.26 1.27 1.19 1.17 1.02
0.89 0.75 0.65 0.56 0.50 0.52 0.47 0.39 0.44 0.43 0.41 0.42 0.46 0.47 0.57 0.72 0.69 0.79 0.72 0.75 0.68 0.70 0.73 0.75 0.76 0.74 0.77 0.70 0.86 0.98 0.93 1.00 1.15 1.06 0.84 0.62 0.77 1.15 1.34 1.37 1.30 1.26 1.22
1.19 1.08 1.06 0.90 0.70 0.63 0.58 0.74 0.92 0.86 0.87 0.92 1.00 0.98 1.14 1.22 1.23 0.99 1.05 1.15 1.16 1.24 1.26 1.30 1.44 1.24 0.99 0.85 1.08 1.21 1.04 1.05 1.17 0.94 0.69 0.73 0.91 1.27 1.44 1.35 1.30 1.30 1.30
1.67 1.43 1.21 1.21 1.12 1.11 1.12 1.12 1.18 1.32 1.38 1.50 1.57 1.55 1.72 1.49 1.34 1.24 1.44 1.63 1.59 1.55 1.45 1.70 1.91 1.56 1.49 1.64 1.64 1.49 1.37 1.24 1.28 1.08 0.91 0.98 1.14 1.45 1.60 1.46 1.44 1.39 1.24
2.33 2.24 2.11 1.88 1.71 1.69 1.55 1.37 1.31 1.32 1.37 1.45 1.56 1.62 1.80 1.87 1.77 1.78 1.93 1.78 1.76 1.80 1.98 1.97 2.17 2.05 1.90 1.80 1.77 1.89 1.82 1.56 1.53 1.43 1.39 1.40 1.45 1.62 1.74 1.64 1.58 1.57 1.42
2.86 3.09 3.50 3.23 2.59 2.22 1.92 1.63 1.36 1.33 1.19 1.15 1.25 1.47 1.66 1.81 1.92 2.02 1.86 1.73 1.52 1.73 2.01 2.10 1.92 2.12 2.13 2.13 2.09 2.10 2.13 1.88 1.72 1.61 1.64 1.80 1.76 1.73 1.86 1.90 1.84 1.82 1.74
3.71 3.72 3.82 4.16 3.51 2.73 2.20 1.85 1.54 1.27 1.27 1.26 1.27 1.32 1.51 1.69 1.76 1.81 1.74 1.67 1.61 1.72 1.91 1.93 1.93 2.18 2.28 2.24 1.94 1.83 1.83 1.88 1.78 1.61 1.74 1.84 1.88 1.72 1.80 2.04 2.13 2.10 2.09
4.30 4.39 4.41 4.63 4.21 3.59 3.00 2.40 1.87 1.59 1.37 1.38 1.41 1.30 1.31 1.45 1.49 1.58 1.59 1.54 1.59 1.62 1.64 1.63 1.69 1.89 1.89 1.84 1.69 1.60 1.64 1.69 1.76 1.75 1.61 1.65 1.77 1.84 1.77 1.92 2.08 2.11 2.23
4.97 5.17 5.18 4.94 4.72 4.20 3.54 2.94 2.51 2.18 1.87 1.61 1.47 1.32 1.15 1.22 1.24 1.31 1.23 1.24 1.27 1.29 1.29 1.37 1.42 1.58 1.70 1.78 1.78 1.63 1.74 1.81 1.71 1.80 1.75 1.66 1.87 1.75 1.99 2.12 2.10 2.06 2.26
6.15 6.55 6.30 5.58 5.05 4.46 3.83 3.31 3.07 2.81 2.39 1.97 1.78 1.58 1.34 1.19 1.15 1.17 1.16 1.16 1.03 1.07 1.08 1.03 1.20 1.40 1.58 1.65 1.48 1.56 1.49 1.52 1.52 1.46 1.64 1.52 1.64 1.75 1.93 2.02 2.13 2.06 2.33
6.48 7.15 7.01 6.29 5.36 4.62 4.16 3.66 3.39 3.05 2.61 2.12 1.85 1.71 1.48 1.35 1.16 1.08 1.01 0.96 0.86 0.94 1.05 1.12 1.35 1.35 1.32 1.39 1.24 1.40 1.34 1.18 1.26 1.32 1.31 1.38 1.44 1.35 1.59 1.82 2.01 1.74 2.09
5.45 5.97 5.83 5.17 4.63 4.03 3.46 2.86 2.67 2.38 2.14 1.89 1.67 1.47 1.43 1.35 1.13 1.07 0.96 1.03 0.89 0.88 0.91 0.90 1.03 1.09 1.07 1.11 1.35 1.42 1.24 1.06 1.10 1.13 1.10 1.23 1.28 1.30 1.61 1.92 2.01 1.94 1.72
3.93 4.17 3.67 3.44 3.38 2.97 2.62 2.47 2.29 2.05 1.83 1.62 1.49 1.41 1.20 1.14 1.07 0.97 1.03 1.00 0.92 0.94 0.90 0.89 1.00 1.05 1.02 1.05 1.19 1.32 1.23 1.26 1.15 0.91 1.11 1.17 1.19 1.37 1.55 1.65 1.86 2.04 1.75
2.75 2.72 2.47 2.39 2.64 2.53 2.42 2.32 2.23 2.12 1.99 1.72 1.43 1.33 1.13 0.97 0.95 0.96 0.97 1.00 1.00 0.84 0.87 0.93 0.91 0.95 0.95 0.93 0.95 1.13 1.16 1.21 1.08 0.95 1.00 1.04 1.14 1.34 1.40 1.50 1.40 1.52 1.65
1.87 1.95 2.16 2.22 2.30 2.16 2.14 1.92 1.71 1.53 1.36 1.25 1.22 1.18 1.18 1.04 0.93 0.87 0.89 1.02 1.00 0.87 0.95 0.76 0.77 0.90 0.95 0.82 0.77 0.79 0.81 0.96 1.07 1.12 1.05 1.01 1.06 1.12 1.16 1.20 1.22 1.29 1.37
1.43 1.66 2.01 2.09 2.06 1.93 1.83 1.78 1.78 1.65 1.57 1.44 1.39 1.40 1.37 1.34 1.18 0.97 0.89 0.99 1.05 0.99 1.02 0.92 1.01 0.90 0.82 0.75 0.72 0.77 0.81 0.77 0.76 0.98 1.11 1.08 1.03 0.87 0.90 0.96 1.00 1.05 1.12
1.28 1.38 1.57 1.72 1.88 1.91 1.90 1.90 1.82 1.74 1.75 1.57 1.41 1.30 1.28 1.29 1.23 1.15 1.05 1.14 1.15 1.06 1.06 1.00 1.03 0.98 0.92 0.88 0.76 0.73 0.93 0.89 0.75 0.88 0.87 0.91 0.90 0.71 0.76 0.85 0.87 0.94 1.01

GEFSSE_prec_meanprecacc_174.txt.gz
Total_Precipitation_Accumulation
0.19 0.26 0.49 0.48 0.36 0.34 0.35 0.37 0.42 0.42 0.39 0.37 0.41 0.42 0.44 0.44 0.43 0.38 0.34 0.38 0.41 0.44 0.50 0.55 0.61 0.65 0.67 0.74 0.75 0.75 0.71 0.71 0.90 1.00 1.17 1.38 1.63 1.86 2.08 2.25 2.26 1.79 1.59
0.06 0.12 0.37 0.41 0.34 0.30 0.30 0.31 0.37 0.39 0.39 0.37 0.36 0.34 0.33 0.32 0.30 0.30 0.37 0.42 0.43 0.44 0.47 0.51 0.55 0.58 0.60 0.57 0.60 0.59 0.65 0.85 1.10 1.34 1.67 1.82 1.95 2.07 2.15 2.24 2.26 1.70 1.47
0.04 0.06 0.18 0.31 0.29 0.26 0.27 0.29 0.30 0.33 0.34 0.36 0.35 0.31 0.29 0.29 0.30 0.30 0.36 0.39 0.41 0.41 0.39 0.43 0.48 0.52 0.56 0.59 0.56 0.59 0.73 1.01 1.42 1.82 2.09 1.97 1.68 1.94 2.02 2.13 2.05 1.48 1.36
0.03 0.04 0.07 0.21 0.24 0.22 0.24 0.27 0.26 0.27 0.26 0.28 0.28 0.28 0.28 0.30 0.32 0.35 0.37 0.38 0.42 0.42 0.45 0.51 0.54 0.47 0.44 0.49 0.55 0.67 0.83 1.09 1.47 1.95 1.96 1.71 1.46 1.56 1.72 1.63 1.58 1.36 1.27
0.05 0.04 0.09 0.18 0.20 0.19 0.20 0.25 0.24 0.21 0.23 0.25 0.25 0.26 0.28 0.31 0.34 0.36 0.39 0.43 0.49 0.56 0.57 0.58 0.52 0.42 0.40 0.44 0.54 0.70 0.90 1.22 1.50 1.72 1.46 1.55 1.67 1.58 1.51 1.42 1.42 1.26 1.07
0.07 0.05 0.11 0.18 0.19 0.19 0.19 0.20 0.21 0.21 0.24 0.27 0.30 0.29 0.29 0.31 0.37 0.42 0.44 0.47 0.47 0.56 0.56 0.58 0.48 0.44 0.41 0.45 0.59 0.73 1.02 1.34 1.40 1.14 1.08 1.28 1.24 1.45 1.39 1.34 1.25 1.10 0.88
0.06 0.07 0.10 0.19 0.21 0.22 0.21 0.22 0.22 0.21 0.21 0.24 0.28 0.28 0.31 0.38 0.43 0.50 0.52 0.50 0.43 0.50 0.51 0.51 0.52 0.51 0.51 0.52 0.60 0.67 0.91 1.23 1.15 0.96 0.99 1.19 1.05 1.19 1.31 1.31 1.26 1.05 0.86
0.08 0.07 0.12 0.20 0.24 0.24 0.25 0.26 0.26 0.24 0.23 0.24 0.27 0.32 0.37 0.43 0.44 0.47 0.54 0.55 0.47 0.47 0.45 0.48 0.49 0.49 0.53 0.57 0.62 0.65 0.78 0.95 0.83 0.75 0.81 0.90 0.91 1.05 1.27 1.19 1.12 1.02 0.84
0.31 0.18 0.17 0.18 0.23 0.26 0.30 0.30 0.30 0.26 0.26 0.28 0.32 0.33 0.34 0.36 0.39 0.45 0.55 0.55 0.50 0.48 0.44 0.48 0.46 0.47 0.54 0.55 0.62 0.64 0.77 0.93 0.82 0.86 0.74 0.71 0.77 0.97 1.24 1.15 1.04 1.02 0.92
0.58 0.36 0.29 0.29 0.35 0.35 0.34 0.32 0.34 0.29 0.28 0.29 0.33 0.32 0.37 0.38 0.42 0.50 0.56 0.59 0.54 0.54 0.50 0.53 0.53 0.54 0.59 0.59 0.67 0.78 0.92 0.89 0.88 0.98 0.81 0.58 0.73 0.99 1.28 1.29 1.22 1.21 1.06
0.91 0.77 0.67 0.57 0.50 0.55 0.49 0.41 0.48 0.45 0.44 0.47 0.52 0.55 0.69 0.88 0.83 0.91 0.80 0.80 0.71 0.74 0.78 0.79 0.79 0.76 0.78 0.71 0.86 0.99 0.94 1.03 1.19 1.10 0.87 0.63 0.78 1.17 1.37 1.40 1.33 1.30 1.26
1.22 1.14 1.12 0.92 0.71 0.65 0.60 0.77 1.00 0.94 0.96 1.05 1.14 1.13 1.33 1.39 1.41 1.13 1.15 1.22 1.20 1.28 1.30 1.36 1.47 1.25 1.01 0.86 1.08 1.22 1.07 1.09 1.21 0.97 0.72 0.73 0.92 1.30 1.47 1.38 1.33 1.32 1.33
1.69 1.46 1.25 1.23 1.14 1.13 1.16 1.16 1.23 1.41 1.52 1.63 1.71 1.69 1.88 1.61 1.47 1.36 1.53 1.72 1.68 1.61 1.51 1.76 1.95 1.60 1.53 1.66 1.66 1.50 1.39 1.26 1.30 1.10 0.94 0.99 1.15 1.47 1.62 1.48 1.46 1.41 1.26
2.35 2.26 2.14 1.90 1.73 1.73 1.58 1.40 1.34 1.37 1.46 1.55 1.67 1.73 1.90 1.99 1.89 1.91 2.05 1.88 1.85 1.89 2.07 2.04 2.24 2.10 1.94 1.82 1.78 1.90 1.83 1.57 1.54 1.45 1.41 1.40 1.46 1.63 1.77 1.66 1.61 1.59 1.44
2.88 3.11 3.52 3.25 2.61 2.24 1.96 1.68 1.38 1.35 1.25 1.23 1.34 1.56 1.72 1.88 2.02 2.12 1.94 1.82 1.60 1.81 2.07 2.18 1.97 2.15 2.15 2.15 2.10 2.10 2.13 1.89 1.72 1.63 1.68 1.81 1.76 1.74 1.88 1.93 1.86 1.84 1.77
3.73 3.73 3.84 4.19 3.54 2.77 2.24 1.90 1.57 1.29 1.31 1.33 1.36 1.38 1.57 1.74 1.82 1.88 1.81 1.75 1.68 1.78 1.98 2.00 1.97 2.22 2.31 2.26 1.95 1.83 1.83 1.88 1.80 1.64 1.77 1.86 1.89 1.72 1.80 2.05 2.15 2.13 2.13
4.31 4.42 4.45 4.66 4.23 3.62 3.04 2.45 1.91 1.61 1.39 1.44 1.50 1.35 1.35 1.50 1.55 1.64 1.66 1.61 1.65 1.67 1.69 1.68 1.74 1.94 1.94 1.88 1.72 1.61 1.65 1.70 1.78 1.78 1.65 1.69 1.80 1.85 1.78 1.94 2.10 2.14 2.27
4.98 5.19 5.21 4.96 4.76 4.23 3.58 2.99 2.55 2.21 1.90 1.65 1.53 1.37 1.19 1.27 1.30 1.38 1.30 1.32 1.34 1.34 1.33 1.42 1.47 1.64 1.77 1.85 1.83 1.67 1.76 1.82 1.72 1.82 1.78 1.70 1.93 1.80 2.03 2.14 2.12 2.08 2.30
6.16 6.57 6.32 5.62 5.10 4.51 3.88 3.36 3.12 2.86 2.44 2.01 1.82 1.62 1.41 1.25 1.20 1.23 1.24 1.26 1.08 1.11 1.13 1.07 1.25 1.48 1.68 1.74 1.54 1.61 1.51 1.53 1.55 1.49 1.68 1.56 1.70 1.83 2.00 2.07 2.16 2.09 2.36
6.49 7.16 7.03 6.34 5.42 4.67 4.22 3.71 3.45 3.11 2.66 2.16 1.91 1.77 1.55 1.42 1.23 1.14 1.07 1.04 0.91 1.02 1.14 1.20 1.47 1.48 1.43 1.47 1.29 1.46 1.37 1.20 1.29 1.38 1.37 1.45 1.50 1.39 1.65 1.88 2.07 1.78 2.12
5.45 5.99 5.85 5.21 4.68 4.07 3.52 2.93 2.75 2.46 2.20 1.94 1.73 1.53 1.49 1.41 1.21 1.15 1.04 1.14 0.96 0.97 0.99 0.99 1.14 1.22 1.17 1.19 1.45 1.53 1.30 1.11 1.17 1.20 1.17 1.31 1.35 1.34 1.65 1.99 2.08 2.01 1.77
3.94 4.18 3.69 3.47 3.42 3.00 2.66 2.53 2.36 2.12 1.87 1.65 1.53 1.47 1.24 1.18 1.12 1.05 1.12 1.06 1.00 1.04 0.99 1.00 1.12 1.17 1.15 1.14 1.31 1.48 1.37 1.43 1.34 1.02 1.19 1.24 1.25 1.42 1.59 1.70 1.95 2.15 1.84
2.75 2.73 2.49 2.41 2.67 2.57 2.49 2.38 2.30 2.19 2.06 1.79 1.48 1.41 1.17 1.01 0.99 1.03 1.04 1.07 1.08 0.92 0.99 1.05 1.01 1.06 1.09 1.04 1.06 1.28 1.36 1.42 1.26 1.05 1.08 1.10 1.20 1.43 1.48 1.59 1.48 1.62 1.77
1.87 1.96 2.18 2.25 2.33 2.22 2.23 2.01 1.80 1.62 1.46 1.34 1.28 1.26 1.25 1.09 0.99 0.92 0.95 1.08 1.08 0.95 1.08 0.83 0.88 1.03 1.08 0.94 0.91 0.92 0.96 1.13 1.26 1.28 1.16 1.10 1.14 1.20 1.25 1.29 1.32 1.40 1.48
1.44 1.66 2.02 2.10 2.10 1.98 1.91 1.88 1.87 1.75 1.68 1.53 1.46 1.50 1.47 1.43 1.25 1.01 0.95 1.07 1.14 1.09 1.12 1.02 1.15 1.02 0.93 0.86 0.84 0.92 0.96 0.94 0.91 1.16 1.26 1.20 1.13 0.96 0.98 1.05 1.09 1.14 1.20
1.29 1.39 1.58 1.74 1.91 1.96 1.97 1.99 1.91 1.84 1.85 1.67 1.51 1.42 1.39 1.39 1.30 1.21 1.12 1.23 1.24 1.18 1.18 1.10 1.14 1.10 1.04 1.00 0.88 0.85 1.05 1.02 0.91 1.07 1.04 1.05 1.03 0.79 0.83 0.93 0.95 1.01 1.08

GEFSSE_prec_meanprecacc_180.txt.gz
Total_Precipitation_Accumulation
0.21 0.29 0.58 0.62 0.49 0.44 0.43 0.46 0.52 0.50 0.46 0.45 0.48 0.49 0.53 0.57 0.56 0.49 0.44 0.50 0.53 0.55 0.61 0.61 0.66 0.69 0.71 0.79 0.80 0.79 0.75 0.77 0.95 1.06 1.23 1.43 1.67 1.92 2.15 2.30 2.31 1.83 1.63
0.07 0.14 0.40 0.50 0.45 0.40 0.37 0.38 0.45 0.47 0.48 0.45 0.41 0.40 0.38 0.39 0.39 0.38 0.46 0.53 0.53 0.53 0.55 0.58 0.60 0.61 0.64 0.60 0.62 0.62 0.68 0.92 1.17 1.41 1.74 1.87 2.01 2.13 2.20 2.30 2.31 1.73 1.52
0.04 0.06 0.20 0.36 0.34 0.32 0.34 0.35 0.37 0.40 0.41 0.43 0.41 0.38 0.35 0.33 0.35 0.36 0.43 0.46 0.47 0.47 0.44 0.48 0.53 0.56 0.60 0.62 0.59 0.62 0.77 1.07 1.51 1.92 2.16 1.99 1.72 2.00 2.08 2.18 2.08 1.50 1.41
0.04 0.04 0.08 0.23 0.27 0.25 0.27 0.31 0.29 0.30 0.32 0.36 0.35 0.35 0.34 0.35 0.36 0.38 0.40 0.42 0.46 0.46 0.48 0.54 0.58 0.52 0.49 0.53 0.60 0.73 0.89 1.15 1.55 2.04 2.00 1.73 1.51 1.64 1.78 1.67 1.61 1.39 1.31
0.05 0.04 0.10 0.20 0.22 0.21 0.23 0.28 0.27 0.24 0.28 0.35 0.33 0.32 0.33 0.36 0.39 0.41 0.44 0.48 0.53 0.61 0.60 0.61 0.56 0.46 0.44 0.48 0.58 0.75 0.96 1.30 1.61 1.79 1.50 1.58 1.71 1.64 1.55 1.45 1.46 1.30 1.10
0.07 0.06 0.11 0.19 0.20 0.20 0.20 0.22 0.23 0.23 0.27 0.32 0.35 0.33 0.34 0.36 0.43 0.50 0.52 0.53 0.53 0.60 0.59 0.61 0.51 0.46 0.43 0.47 0.62 0.76 1.07 1.43 1.48 1.19 1.13 1.33 1.28 1.51 1.42 1.37 1.28 1.13 0.90
0.07 0.09 0.11 0.19 0.22 0.23 0.22 0.23 0.24 0.23 0.23 0.27 0.31 0.32 0.36 0.43 0.51 0.60 0.60 0.57 0.49 0.54 0.54 0.52 0.53 0.52 0.53 0.55 0.62 0.70 0.97 1.30 1.20 1.01 1.04 1.23 1.08 1.25 1.34 1.34 1.30 1.08 0.89
0.09 0.08 0.12 0.20 0.24 0.25 0.26 0.27 0.28 0.25 0.24 0.25 0.29 0.34 0.40 0.47 0.53 0.55 0.61 0.62 0.54 0.51 0.47 0.49 0.50 0.49 0.55 0.59 0.66 0.69 0.84 1.01 0.89 0.82 0.86 0.93 0.95 1.09 1.30 1.22 1.14 1.04 0.86
0.32 0.19 0.18 0.19 0.23 0.26 0.31 0.31 0.31 0.27 0.27 0.30 0.34 0.34 0.36 0.40 0.50 0.52 0.61 0.62 0.55 0.51 0.47 0.51 0.48 0.48 0.55 0.57 0.64 0.68 0.83 0.99 0.87 0.90 0.79 0.75 0.81 1.00 1.27 1.17 1.06 1.04 0.93
0.61 0.37 0.31 0.31 0.36 0.37 0.37 0.36 0.37 0.31 0.29 0.31 0.35 0.34 0.41 0.44 0.51 0.58 0.64 0.65 0.57 0.57 0.54 0.58 0.55 0.55 0.60 0.61 0.69 0.82 0.97 0.94 0.93 1.01 0.85 0.61 0.75 1.02 1.31 1.31 1.24 1.23 1.08
0.94 0.80 0.72 0.61 0.53 0.57 0.51 0.42 0.51 0.48 0.47 0.50 0.56 0.59 0.72 0.91 0.90 0.99 0.86 0.84 0.75 0.77 0.82 0.82 0.81 0.78 0.80 0.73 0.89 1.03 0.98 1.09 1.26 1.14 0.92 0.67 0.81 1.20 1.39 1.42 1.36 1.32 1.28
1.26 1.17 1.19 0.96 0.74 0.68 0.62 0.78 1.01 0.97 1.02 1.09 1.16 1.16 1.35 1.42 1.47 1.18 1.19 1.25 1.22 1.32 1.35 1.40 1.50 1.27 1.03 0.88 1.11 1.25 1.12 1.17 1.29 1.03 0.78 0.77 0.95 1.32 1.48 1.39 1.36 1.34 1.35
1.72 1.49 1.29 1.25 1.17 1.16 1.18 1.18 1.26 1.45 1.56 1.67 1.75 1.76 1.91 1.64 1.51 1.38 1.56 1.75 1.70 1.64 1.53 1.79 1.98 1.62 1.55 1.69 1.70 1.55 1.44 1.32 1.37 1.18 0.98 1.01 1.17 1.48 1.63 1.49 1.49 1.43 1.27
2.36 2.28 2.17 1.93 1.75 1.75 1.61 1.42 1.37 1.40 1.49 1.58 1.69 1.75 1.92 2.01 1.91 1.94 2.08 1.91 1.87 1.91 2.10 2.07 2.28 2.14 1.99 1.86 1.83 1.95 1.88 1.63 1.60 1.53 1.46 1.43 1.48 1.65 1.78 1.68 1.62 1.60 1.45
2.89 3.12 3.54 3.27 2.63 2.26 1.98 1.70 1.40 1.38 1.27 1.25 1.35 1.57 1.74 1.90 2.05 2.16 1.99 1.85 1.62 1.82 2.10 2.21 2.02 2.20 2.19 2.19 2.14 2.14 2.17 1.92 1.76 1.68 1.71 1.85 1.78 1.76 1.90 1.94 1.88 1.86 1.79
3.73 3.75 3.87 4.21 3.56 2.78 2.25 1.91 1.60 1.32 1.33 1.35 1.38 1.40 1.58 1.76 1.85 1.91 1.84 1.78 1.71 1.82 2.02 2.03 2.00 2.24 2.34 2.29 1.99 1.87 1.87 1.90 1.82 1.66 1.79 1.89 1.91 1.74 1.83 2.07 2.18 2.16 2.16
4.31 4.42 4.46 4.67 4.24 3.63 3.05 2.46 1.93 1.64 1.41 1.46 1.52 1.38 1.37 1.52 1.57 1.66 1.69 1.64 1.71 1.70 1.73 1.71 1.77 1.97 1.96 1.92 1.76 1.65 1.69 1.76 1.81 1.79 1.68 1.71 1.82 1.87 1.82 1.97 2.14 2.17 2.30
4.98 5.20 5.21 4.97 4.78 4.25 3.59 3.00 2.57 2.23 1.92 1.69 1.57 1.40 1.24 1.30 1.33 1.41 1.34 1.36 1.37 1.36 1.35 1.45 1.50 1.67 1.81 1.90 1.88 1.71 1.80 1.87 1.76 1.85 1.82 1.74 1.96 1.83 2.06 2.17 2.15 2.11 2.33
6.16 6.57 6.33 5.63 5.12 4.52 3.90 3.37 3.14 2.89 2.46 2.05 1.87 1.67 1.46 1.29 1.23 1.27 1.28 1.29 1.11 1.15 1.17 1.10 1.29 1.51 1.72 1.78 1.58 1.65 1.55 1.58 1.60 1.54 1.74 1.63 1.77 1.88 2.05 2.10 2.19 2.11 2.39
6.50 7.17 7.04 6.35 5.44 4.70 4.24 3.73 3.48 3.15 2.69 2.20 1.96 1.81 1.59 1.45 1.26 1.18 1.10 1.06 0.94 1.06 1.18 1.25 1.52 1.51 1.46 1.50 1.34 1.52 1.43 1.26 1.37 1.48 1.45 1.54 1.59 1.45 1.71 1.94 2.11 1.81 2.16
5.47 6.01 5.87 5.23 4.70 4.09 3.54 2.95 2.79 2.51 2.23 1.97 1.76 1.56 1.53 1.45 1.24 1.19 1.08 1.17 1.00 1.01 1.02 1.04 1.19 1.25 1.20 1.24 1.55 1.64 1.39 1.19 1.26 1.29 1.26 1.46 1.50 1.46 1.75 2.09 2.17 2.08 1.83
3.96 4.20 3.71 3.48 3.43 3.02 2.68 2.55 2.39 2.18 1.92 1.69 1.56 1.49 1.26 1.20 1.14 1.08 1.15 1.08 1.03 1.07 1.02 1.04 1.17 1.23 1.20 1.23 1.40 1.56 1.43 1.50 1.41 1.10 1.31 1.40 1.43 1.59 1.72 1.83 2.07 2.25 1.93
2.77 2.75 2.51 2.43 2.69 2.59 2.51 2.42 2.33 2.24 2.12 1.86 1.52 1.43 1.19 1.04 1.03 1.08 1.08 1.10 1.11 0.94 1.02 1.08 1.06 1.11 1.13 1.10 1.14 1.36 1.41 1.46 1.32 1.11 1.16 1.22 1.33 1.55 1.61 1.72 1.59 1.73 1.85
1.89 1.97 2.19 2.26 2.36 2.26 2.28 2.07 1.85 1.67 1.52 1.40 1.34 1.32 1.30 1.14 1.03 0.96 1.00 1.13 1.12 0.98 1.10 0.86 0.93 1.08 1.12 0.98 0.97 0.99 1.02 1.18 1.31 1.33 1.21 1.16 1.22 1.30 1.38 1.45 1.48 1.55 1.59
1.45 1.67 2.03 2.12 2.12 2.01 1.95 1.95 1.95 1.81 1.72 1.58 1.52 1.56 1.53 1.50 1.30 1.07 0.99 1.11 1.18 1.13 1.16 1.05 1.19 1.06 0.97 0.90 0.91 0.99 1.04 0.99 0.96 1.19 1.29 1.24 1.21 1.06 1.08 1.14 1.20 1.27 1.34
1.29 1.39 1.58 1.74 1.92 1.97 1.99 2.04 1.97 1.90 1.90 1.70 1.54 1.44 1.42 1.43 1.36 1.25 1.16 1.26 1.27 1.22 1.22 1.13 1.18 1.14 1.09 1.05 0.93 0.92 1.11 1.08 0.96 1.10 1.07 1.08 1.07 0.84 0.89 1.00 1.03 1.10 1.19